Time,TemperatureF,DewpointF,PressureIn,WindDirection,WindDirectionDegrees,WindSpeedMPH,WindSpeedGustMPH,Humidity,HourlyPrecipIn,Conditions,Clouds,dailyrainin,SoftwareType,DateUTC
2013-02-27 00:00:00,18.3,-2.5,29.58,West,271,8.0,15.0,39,0.00,,---,0.00,VWS V14.01,2013-02-27 09:00:00,
2013-02-27 00:03:00,18.2,-3.1,29.57,NW,306,12.0,15.0,38,0.00,,---,0.00,VWS V14.01,2013-02-27 09:03:00,
2013-02-27 00:04:00,18.2,-3.1,29.57,NW,319,11.0,15.0,38,0.00,,---,0.00,VWS V14.01,2013-02-27 09:04:00,
2013-02-27 00:05:00,18.0,-3.3,29.57,WNW,300,5.0,15.0,38,0.00,,---,0.00,VWS V14.01,2013-02-27 09:05:00,
2013-02-27 00:08:00,18.0,-3.3,29.56,NW,317,8.0,17.0,38,0.00,,---,0.00,VWS V14.01,2013-02-27 09:08:00,
2013-02-27 00:09:00,18.0,-3.3,29.57,NNW,334,6.0,17.0,38,0.00,,---,0.00,VWS V14.01,2013-02-27 09:09:00,
2013-02-27 00:10:00,17.9,-3.4,29.57,WNW,290,9.0,15.0,38,0.00,,---,0.00,VWS V14.01,2013-02-27 09:10:00,
2013-02-27 00:11:00,17.9,-3.4,29.57,NW,321,11.0,17.0,38,0.00,,---,0.00,VWS V14.01,2013-02-27 09:11:00,
2013-02-27 00:13:00,16.3,-0.8,29.57,ENE,60,5.0,6.0,46,0.00,,---,0.00,VWS V14.01,2013-02-27 09:13:00,
2013-02-27 00:14:00,16.2,-0.9,29.57,ESE,107,11.0,11.0,46,0.00,,---,0.00,VWS V14.01,2013-02-27 09:14:00,
2013-02-27 00:15:00,16.2,-0.9,29.57,ESE,109,11.0,11.0,46,0.00,,---,0.00,VWS V14.01,2013-02-27 09:15:00,
2013-02-27 00:16:00,15.8,-1.3,29.58,SE,126,4.0,12.0,46,0.00,,---,0.00,VWS V14.01,2013-02-27 09:16:00,
2013-02-27 00:19:00,15.4,-1.7,29.58,SE,126,0.0,5.0,46,0.00,,---,0.00,VWS V14.01,2013-02-27 09:19:00,
2013-02-27 00:20:00,15.3,-1.8,29.58,SE,126,2.0,5.0,46,0.00,,---,0.00,VWS V14.01,2013-02-27 09:20:00,
2013-02-27 00:21:00,15.1,-2.0,29.57,SSE,148,4.0,9.0,46,0.00,,---,0.00,VWS V14.01,2013-02-27 09:21:00,
2013-02-27 00:24:00,15.1,-1.5,29.58,East,94,5.0,9.0,47,0.00,,---,0.00,VWS V14.01,2013-02-27 09:24:00,
2013-02-27 00:25:00,15.0,-1.6,29.58,East,96,4.0,9.0,47,0.00,,---,0.00,VWS V14.01,2013-02-27 09:25:00,
2013-02-27 00:26:00,14.6,-2.0,29.58,ESE,111,1.0,9.0,47,0.00,,---,0.00,VWS V14.01,2013-02-27 09:26:00,
2013-02-27 00:29:00,14.2,-2.3,29.58,SE,137,0.0,5.0,47,0.00,,---,0.00,VWS V14.01,2013-02-27 09:29:00,
2013-02-27 00:30:00,14.1,-2.0,29.58,SE,143,2.0,5.0,48,0.00,,---,0.00,VWS V14.01,2013-02-27 09:30:00,
2013-02-27 00:32:00,13.9,-2.2,29.58,South,179,5.0,6.0,48,0.00,,---,0.00,VWS V14.01,2013-02-27 09:32:00,
2013-02-27 00:34:00,14.1,-1.1,29.57,WNW,294,6.0,8.0,50,0.00,,---,0.00,VWS V14.01,2013-02-27 09:34:00,
2013-02-27 00:35:00,14.2,-0.6,29.58,NW,319,3.0,8.0,51,0.00,,---,0.00,VWS V14.01,2013-02-27 09:35:00,
2013-02-27 00:37:00,14.6,-0.2,29.58,NE,49,4.0,4.0,51,0.00,,---,0.00,VWS V14.01,2013-02-27 09:37:00,
2013-02-27 00:39:00,15.0,-0.3,29.58,East,101,1.0,8.0,50,0.00,,---,0.00,VWS V14.01,2013-02-27 09:39:00,
2013-02-27 00:40:00,15.0,-0.7,29.58,East,101,2.0,8.0,49,0.00,,---,0.00,VWS V14.01,2013-02-27 09:40:00,
2013-02-27 00:43:00,14.8,-0.9,29.58,SSE,150,9.0,9.0,49,0.00,,---,0.00,VWS V14.01,2013-02-27 09:43:00,
2013-02-27 00:44:00,14.7,-1.0,29.57,SE,134,6.0,9.0,49,0.00,,---,0.00,VWS V14.01,2013-02-27 09:44:00,
2013-02-27 00:45:00,14.7,-1.0,29.57,SE,133,6.0,9.0,49,0.00,,---,0.00,VWS V14.01,2013-02-27 09:45:00,
2013-02-27 00:48:00,14.5,-0.7,29.57,SSE,155,10.0,12.0,50,0.00,,---,0.00,VWS V14.01,2013-02-27 09:48:00,
2013-02-27 00:49:00,14.4,-0.8,29.57,SSE,148,2.0,12.0,50,0.00,,---,0.00,VWS V14.01,2013-02-27 09:49:00,
2013-02-27 00:50:00,14.3,-1.4,29.57,SSE,148,0.0,12.0,49,0.00,,---,0.00,VWS V14.01,2013-02-27 09:50:00,
2013-02-27 00:54:00,14.3,-0.9,29.57,SSW,200,4.0,6.0,50,0.00,,---,0.00,VWS V14.01,2013-02-27 09:54:00,
2013-02-27 00:55:00,14.3,-0.9,29.57,NW,318,12.0,12.0,50,0.00,,---,0.00,VWS V14.01,2013-02-27 09:55:00,
2013-02-27 00:59:00,16.0,1.5,29.56,NNW,342,12.0,17.0,52,0.00,,---,0.00,VWS V14.01,2013-02-27 09:59:00,
2013-02-27 01:00:00,16.4,4.2,29.56,NNW,329,13.0,17.0,58,0.00,,---,0.00,VWS V14.01,2013-02-27 10:00:00,
2013-02-27 01:05:00,18.4,2.0,29.55,NW,313,8.0,17.0,48,0.00,,---,0.00,VWS V14.01,2013-02-27 10:05:00,
2013-02-27 01:06:00,18.4,1.5,29.56,NW,321,8.0,17.0,47,0.00,,---,0.00,VWS V14.01,2013-02-27 10:06:00,
2013-02-27 01:10:00,18.3,1.0,29.55,WNW,291,7.0,17.0,46,0.00,,---,0.00,VWS V14.01,2013-02-27 10:10:00,
2013-02-27 01:11:00,18.2,0.9,29.55,West,281,6.0,17.0,46,0.00,,---,0.00,VWS V14.01,2013-02-27 10:11:00,
2013-02-27 01:15:00,17.7,0.4,29.55,WNW,290,5.0,10.0,46,0.00,,---,0.00,VWS V14.01,2013-02-27 10:15:00,
2013-02-27 01:16:00,17.6,0.3,29.55,WSW,243,3.0,10.0,46,0.00,,---,0.00,VWS V14.01,2013-02-27 10:16:00,
2013-02-27 01:20:00,17.1,0.3,29.55,NW,312,1.0,10.0,47,0.00,,---,0.00,VWS V14.01,2013-02-27 10:20:00,
2013-02-27 01:21:00,17.0,0.3,29.55,NW,312,0.0,10.0,47,0.00,,---,0.00,VWS V14.01,2013-02-27 10:21:00,
2013-02-27 01:25:00,16.8,1.0,29.54,East,90,0.0,6.0,49,0.00,,---,0.00,VWS V14.01,2013-02-27 10:25:00,
2013-02-27 01:26:00,16.7,1.3,29.54,West,274,2.0,11.0,50,0.00,,---,0.00,VWS V14.01,2013-02-27 10:26:00,
2013-02-27 01:30:00,16.9,1.9,29.54,NW,317,2.0,9.0,51,0.00,,---,0.00,VWS V14.01,2013-02-27 10:30:00,
2013-02-27 01:31:00,17.0,2.0,29.53,SW,216,4.0,9.0,51,0.00,,---,0.00,VWS V14.01,2013-02-27 10:31:00,
2013-02-27 01:32:00,17.0,2.0,29.54,SW,215,3.0,3.0,51,0.00,,---,0.00,VWS V14.01,2013-02-27 10:32:00,
2013-02-27 01:35:00,17.1,2.1,29.53,NNW,344,0.0,7.0,51,0.00,,---,0.00,VWS V14.01,2013-02-27 10:35:00,
2013-02-27 01:36:00,17.1,2.1,29.53,East,90,6.0,7.0,51,0.00,,---,0.00,VWS V14.01,2013-02-27 10:36:00,
2013-02-27 01:37:00,17.1,2.1,29.53,East,89,2.0,5.0,51,0.00,,---,0.00,VWS V14.01,2013-02-27 10:37:00,
2013-02-27 01:40:00,17.0,2.0,29.53,NE,48,5.0,8.0,51,0.00,,---,0.00,VWS V14.01,2013-02-27 10:40:00,
2013-02-27 01:41:00,16.9,1.9,29.53,NE,50,6.0,8.0,51,0.00,,---,0.00,VWS V14.01,2013-02-27 10:41:00,
2013-02-27 01:42:00,16.9,1.9,29.53,ENE,78,4.0,4.0,51,0.00,,---,0.00,VWS V14.01,2013-02-27 10:42:00,
2013-02-27 01:45:00,16.9,1.9,29.53,NE,56,4.0,8.0,51,0.00,,---,0.00,VWS V14.01,2013-02-27 10:45:00,
2013-02-27 01:46:00,17.0,2.4,29.53,North,5,0.0,14.0,52,0.00,,---,0.00,VWS V14.01,2013-02-27 10:46:00,
2013-02-27 01:47:00,17.0,2.0,29.53,ESE,110,6.0,6.0,51,0.00,,---,0.00,VWS V14.01,2013-02-27 10:47:00,
2013-02-27 01:50:00,16.7,2.1,29.53,SE,129,7.0,9.0,52,0.00,,---,0.00,VWS V14.01,2013-02-27 10:50:00,
2013-02-27 01:51:00,16.7,2.1,29.53,ESE,113,8.0,13.0,52,0.00,,---,0.00,VWS V14.01,2013-02-27 10:51:00,
2013-02-27 01:52:00,16.8,2.2,29.54,SSE,147,7.0,12.0,52,0.00,,---,0.00,VWS V14.01,2013-02-27 10:52:00,
2013-02-27 01:55:00,16.8,2.2,29.53,ESE,121,9.0,13.0,52,0.00,,---,0.00,VWS V14.01,2013-02-27 10:55:00,
2013-02-27 01:56:00,17.0,2.8,29.53,SSE,153,5.0,13.0,53,0.00,,---,0.00,VWS V14.01,2013-02-27 10:56:00,
2013-02-27 01:57:00,17.0,2.8,29.53,SE,130,4.0,8.0,53,0.00,,---,0.00,VWS V14.01,2013-02-27 10:57:00,
2013-02-27 01:58:00,16.9,2.7,29.52,SE,137,5.0,8.0,53,0.00,,---,0.00,VWS V14.01,2013-02-27 10:58:00,
2013-02-27 02:00:00,17.0,2.8,29.53,SSE,152,7.0,13.0,53,0.00,,---,0.00,VWS V14.01,2013-02-27 11:00:00,
2013-02-27 02:01:00,16.9,3.1,29.53,East,79,2.0,11.0,54,0.00,,---,0.00,VWS V14.01,2013-02-27 11:01:00,
2013-02-27 02:03:00,17.2,3.8,29.53,NNW,348,0.0,8.0,55,0.00,,---,0.00,VWS V14.01,2013-02-27 11:03:00,
2013-02-27 02:04:00,17.6,4.2,29.53,ENE,69,4.0,8.0,55,0.00,,---,0.00,VWS V14.01,2013-02-27 11:04:00,
2013-02-27 02:05:00,17.0,3.2,29.53,ENE,78,3.0,11.0,54,0.00,,---,0.00,VWS V14.01,2013-02-27 11:05:00,
2013-02-27 02:06:00,17.8,3.6,29.53,SSE,158,6.0,8.0,53,0.00,,---,0.00,VWS V14.01,2013-02-27 11:06:00,
2013-02-27 02:08:00,17.9,3.7,29.52,SSE,159,0.0,5.0,53,0.00,,---,0.00,VWS V14.01,2013-02-27 11:08:00,
2013-02-27 02:10:00,17.8,3.6,29.52,SSE,159,4.0,6.0,53,0.00,,---,0.00,VWS V14.01,2013-02-27 11:10:00,
2013-02-27 02:12:00,17.7,3.5,29.52,East,101,6.0,9.0,53,0.00,,---,0.00,VWS V14.01,2013-02-27 11:12:00,
2013-02-27 02:13:00,17.6,3.4,29.52,ESE,107,6.0,9.0,53,0.00,,---,0.00,VWS V14.01,2013-02-27 11:13:00,
2013-02-27 02:15:00,17.6,3.8,29.52,ESE,109,16.0,16.0,54,0.00,,---,0.00,VWS V14.01,2013-02-27 11:15:00,
2013-02-27 02:17:00,18.0,4.6,29.52,South,169,15.0,15.0,55,0.00,,---,0.00,VWS V14.01,2013-02-27 11:17:00,
2013-02-27 02:18:00,18.3,4.8,29.52,SSW,196,4.0,15.0,55,0.00,,---,0.00,VWS V14.01,2013-02-27 11:18:00,
2013-02-27 02:20:00,18.6,5.1,29.52,SSW,197,0.0,15.0,55,0.00,,---,0.00,VWS V14.01,2013-02-27 11:20:00,
2013-02-27 02:22:00,19.0,5.5,29.51,SW,232,1.0,7.0,55,0.00,,---,0.00,VWS V14.01,2013-02-27 11:22:00,
2013-02-27 02:23:00,19.0,5.5,29.51,SW,219,2.0,7.0,55,0.00,,---,0.00,VWS V14.01,2013-02-27 11:23:00,
2013-02-27 02:24:00,19.0,5.5,29.52,WSW,251,8.0,8.0,55,0.00,,---,0.00,VWS V14.01,2013-02-27 11:24:00,
2013-02-27 02:25:00,19.1,6.0,29.51,West,274,6.0,8.0,56,0.00,,---,0.00,VWS V14.01,2013-02-27 11:25:00,
2013-02-27 02:28:00,19.6,6.5,29.51,SSW,200,0.0,5.0,56,0.00,,---,0.00,VWS V14.01,2013-02-27 11:28:00,
2013-02-27 02:29:00,19.7,6.6,29.51,NNW,327,3.0,12.0,56,0.00,,---,0.00,VWS V14.01,2013-02-27 11:29:00,
2013-02-27 02:30:00,19.8,6.7,29.51,NNW,329,11.0,12.0,56,0.00,,---,0.00,VWS V14.01,2013-02-27 11:30:00,
2013-02-27 02:33:00,20.0,6.0,29.50,West,271,5.0,8.0,54,0.00,,---,0.00,VWS V14.01,2013-02-27 11:33:00,
2013-02-27 02:34:00,19.9,5.5,29.51,WSW,257,0.0,9.0,53,0.00,,---,0.00,VWS V14.01,2013-02-27 11:34:00,
2013-02-27 02:35:00,19.7,5.3,29.50,North,349,3.0,9.0,53,0.00,,---,0.00,VWS V14.01,2013-02-27 11:35:00,
2013-02-27 02:38:00,19.6,6.1,29.51,West,260,4.0,9.0,55,0.00,,---,0.00,VWS V14.01,2013-02-27 11:38:00,
2013-02-27 02:39:00,19.5,6.0,29.51,SW,235,0.0,9.0,55,0.00,,---,0.00,VWS V14.01,2013-02-27 11:39:00,
2013-02-27 02:40:00,19.4,5.5,29.51,West,280,0.0,9.0,54,0.00,,---,0.00,VWS V14.01,2013-02-27 11:40:00,
2013-02-27 02:43:00,19.7,6.6,29.51,West,267,2.0,8.0,56,0.00,,---,0.00,VWS V14.01,2013-02-27 11:43:00,
2013-02-27 02:44:00,19.7,6.6,29.51,West,271,4.0,8.0,56,0.00,,---,0.00,VWS V14.01,2013-02-27 11:44:00,
2013-02-27 02:45:00,19.6,6.1,29.51,West,277,2.0,8.0,55,0.00,,---,0.00,VWS V14.01,2013-02-27 11:45:00,
2013-02-27 02:49:00,19.2,5.7,29.51,West,269,1.0,5.0,55,0.00,,---,0.00,VWS V14.01,2013-02-27 11:49:00,
2013-02-27 02:50:00,19.1,5.6,29.51,West,271,0.0,5.0,55,0.00,,---,0.00,VWS V14.01,2013-02-27 11:50:00,
2013-02-27 02:54:00,18.7,5.6,29.51,West,265,0.0,6.0,56,0.00,,---,0.00,VWS V14.01,2013-02-27 11:54:00,
2013-02-27 02:55:00,18.6,5.5,29.51,WNW,293,3.0,8.0,56,0.00,,---,0.00,VWS V14.01,2013-02-27 11:55:00,
2013-02-27 02:56:00,18.5,5.4,29.51,West,272,0.0,8.0,56,0.00,,---,0.00,VWS V14.01,2013-02-27 11:56:00,
2013-02-27 02:59:00,18.1,4.7,29.51,SW,232,0.0,5.0,55,0.00,,---,0.00,VWS V14.01,2013-02-27 11:59:00,
2013-02-27 03:00:00,18.1,4.7,29.51,SW,232,0.0,5.0,55,0.00,,---,0.00,VWS V14.01,2013-02-27 12:00:00,
2013-02-27 03:01:00,18.0,5.0,29.51,SW,228,0.0,5.0,56,0.00,,---,0.00,VWS V14.01,2013-02-27 12:01:00,
2013-02-27 03:04:00,17.5,4.1,29.51,West,280,0.0,10.0,55,0.00,,---,0.00,VWS V14.01,2013-02-27 12:04:00,
2013-02-27 03:05:00,17.6,4.2,29.51,West,279,1.0,10.0,55,0.00,,---,0.00,VWS V14.01,2013-02-27 12:05:00,
2013-02-27 03:06:00,17.5,4.9,29.51,WNW,287,2.0,10.0,57,0.00,,---,0.00,VWS V14.01,2013-02-27 12:06:00,
2013-02-27 03:09:00,17.5,5.3,29.50,NNW,337,6.0,11.0,58,0.00,,---,0.00,VWS V14.01,2013-02-27 12:09:00,
2013-02-27 03:10:00,17.5,5.3,29.51,NW,307,4.0,11.0,58,0.00,,---,0.00,VWS V14.01,2013-02-27 12:10:00,
2013-02-27 03:11:00,17.9,5.6,29.50,NNW,331,7.0,14.0,58,0.00,,---,0.00,VWS V14.01,2013-02-27 12:11:00,
2013-02-27 03:15:00,18.8,6.1,29.50,NW,306,6.0,11.0,57,0.00,,---,0.00,VWS V14.01,2013-02-27 12:15:00,
2013-02-27 03:16:00,19.1,6.0,29.50,NW,317,9.0,12.0,56,0.00,,---,0.00,VWS V14.01,2013-02-27 12:16:00,
2013-02-27 03:20:00,19.2,5.7,29.50,NW,309,5.0,9.0,55,0.00,,---,0.00,VWS V14.01,2013-02-27 12:20:00,
2013-02-27 03:21:00,19.0,5.5,29.50,SSW,207,4.0,9.0,55,0.00,,---,0.00,VWS V14.01,2013-02-27 12:21:00,
2013-02-27 03:25:00,18.4,4.6,29.50,SSW,206,0.0,3.0,54,0.00,,---,0.00,VWS V14.01,2013-02-27 12:25:00,
2013-02-27 03:27:00,18.0,4.6,29.50,SSW,206,0.0,0.0,55,0.00,,---,0.00,VWS V14.01,2013-02-27 12:27:00,
2013-02-27 03:30:00,17.5,4.1,29.49,SSW,206,0.0,2.0,55,0.00,,---,0.00,VWS V14.01,2013-02-27 12:30:00,
2013-02-27 03:32:00,17.2,4.2,29.49,NE,44,3.0,3.0,56,0.00,,---,0.00,VWS V14.01,2013-02-27 12:32:00,
2013-02-27 03:35:00,17.0,4.4,29.49,ESE,107,4.0,8.0,57,0.00,,---,0.00,VWS V14.01,2013-02-27 12:35:00,
2013-02-27 03:36:00,17.0,4.4,29.49,SE,135,8.0,8.0,57,0.00,,---,0.00,VWS V14.01,2013-02-27 12:36:00,
2013-02-27 03:37:00,16.9,4.3,29.49,ENE,78,2.0,4.0,57,0.00,,---,0.00,VWS V14.01,2013-02-27 12:37:00,
2013-02-27 03:40:00,16.9,4.7,29.49,East,84,1.0,4.0,58,0.00,,---,0.00,VWS V14.01,2013-02-27 12:40:00,
2013-02-27 03:41:00,16.9,4.7,29.49,ESE,103,5.0,6.0,58,0.00,,---,0.00,VWS V14.01,2013-02-27 12:41:00,
2013-02-27 03:43:00,16.6,4.0,29.49,SE,146,0.0,6.0,57,0.00,,---,0.00,VWS V14.01,2013-02-27 12:43:00,
2013-02-27 03:45:00,16.2,4.0,29.49,SE,144,1.0,6.0,58,0.00,,---,0.00,VWS V14.01,2013-02-27 12:45:00,
2013-02-27 03:46:00,16.2,4.0,29.49,SE,144,1.0,6.0,58,0.00,,---,0.00,VWS V14.01,2013-02-27 12:46:00,
2013-02-27 03:48:00,16.0,4.2,29.49,SE,144,0.0,2.0,59,0.00,,---,0.00,VWS V14.01,2013-02-27 12:48:00,
2013-02-27 03:50:00,16.1,4.3,29.49,SE,144,2.0,6.0,59,0.00,,---,0.00,VWS V14.01,2013-02-27 12:50:00,
2013-02-27 03:51:00,15.9,4.5,29.49,SE,144,0.0,2.0,60,0.00,,---,0.00,VWS V14.01,2013-02-27 12:51:00,
2013-02-27 03:53:00,15.8,4.4,29.49,SE,144,0.0,0.0,60,0.00,,---,0.00,VWS V14.01,2013-02-27 12:53:00,
2013-02-27 03:55:00,15.9,4.5,29.49,SE,144,0.0,2.0,60,0.00,,---,0.00,VWS V14.01,2013-02-27 12:55:00,
2013-02-27 03:56:00,15.9,4.8,29.49,SE,144,2.0,4.0,61,0.00,,---,0.00,VWS V14.01,2013-02-27 12:56:00,
2013-02-27 03:58:00,16.1,5.0,29.49,SE,140,0.0,5.0,61,0.00,,---,0.00,VWS V14.01,2013-02-27 12:58:00,
2013-02-27 04:00:00,15.9,4.8,29.49,SE,144,0.0,4.0,61,0.00,,---,0.00,VWS V14.01,2013-02-27 13:00:00,
2013-02-27 04:01:00,16.8,6.1,29.49,South,190,4.0,8.0,62,0.00,,---,0.00,VWS V14.01,2013-02-27 13:01:00,
2013-02-27 04:04:00,17.6,6.4,29.49,South,169,7.0,7.0,61,0.00,,---,0.00,VWS V14.01,2013-02-27 13:04:00,
2013-02-27 04:05:00,17.0,6.2,29.49,South,190,3.0,8.0,62,0.00,,---,0.00,VWS V14.01,2013-02-27 13:05:00,
2013-02-27 04:06:00,18.0,6.5,29.49,South,189,2.0,10.0,60,0.00,,---,0.00,VWS V14.01,2013-02-27 13:06:00,
2013-02-27 04:07:00,18.1,6.2,29.49,South,189,3.0,10.0,59,0.00,,---,0.00,VWS V14.01,2013-02-27 13:07:00,
2013-02-27 04:09:00,18.4,6.5,29.49,South,184,2.0,5.0,59,0.00,,---,0.00,VWS V14.01,2013-02-27 13:09:00,
2013-02-27 04:10:00,18.1,6.2,29.49,South,189,3.0,10.0,59,0.00,,---,0.00,VWS V14.01,2013-02-27 13:10:00,
2013-02-27 04:11:00,18.5,6.2,29.48,South,184,0.0,5.0,58,0.00,,---,0.00,VWS V14.01,2013-02-27 13:11:00,
2013-02-27 04:12:00,18.5,6.2,29.48,South,184,0.0,0.0,58,0.00,,---,0.00,VWS V14.01,2013-02-27 13:12:00,
2013-02-27 04:14:00,18.4,6.1,29.48,South,184,0.0,4.0,58,0.00,,---,0.00,VWS V14.01,2013-02-27 13:14:00,
2013-02-27 04:15:00,18.5,6.2,29.48,South,184,0.0,5.0,58,0.00,,---,0.00,VWS V14.01,2013-02-27 13:15:00,
2013-02-27 04:16:00,18.1,5.4,29.49,South,184,0.0,5.0,57,0.00,,---,0.00,VWS V14.01,2013-02-27 13:16:00,
2013-02-27 04:17:00,18.1,5.8,29.49,South,184,1.0,1.0,58,0.00,,---,0.00,VWS V14.01,2013-02-27 13:17:00,
2013-02-27 04:19:00,18.0,5.7,29.49,South,173,4.0,5.0,58,0.00,,---,0.00,VWS V14.01,2013-02-27 13:19:00,
2013-02-27 04:20:00,18.1,5.4,29.49,South,184,0.0,5.0,57,0.00,,---,0.00,VWS V14.01,2013-02-27 13:20:00,
2013-02-27 04:21:00,17.9,6.0,29.49,SSE,153,8.0,8.0,59,0.00,,---,0.00,VWS V14.01,2013-02-27 13:21:00,
2013-02-27 04:22:00,17.9,6.0,29.49,SSE,157,4.0,10.0,59,0.00,,---,0.00,VWS V14.01,2013-02-27 13:22:00,
2013-02-27 04:24:00,17.9,6.0,29.49,SSE,156,0.0,10.0,59,0.00,,---,0.00,VWS V14.01,2013-02-27 13:24:00,
2013-02-27 04:25:00,17.9,6.0,29.49,SSE,162,10.0,10.0,59,0.00,,---,0.00,VWS V14.01,2013-02-27 13:25:00,
2013-02-27 04:26:00,17.9,6.0,29.49,East,98,1.0,10.0,59,0.00,,---,0.00,VWS V14.01,2013-02-27 13:26:00,
2013-02-27 04:27:00,18.0,6.1,29.49,East,99,4.0,4.0,59,0.00,,---,0.00,VWS V14.01,2013-02-27 13:27:00,
2013-02-27 04:29:00,18.0,6.1,29.49,East,98,1.0,5.0,59,0.00,,---,0.00,VWS V14.01,2013-02-27 13:29:00,
2013-02-27 04:30:00,17.9,6.0,29.49,East,99,4.0,10.0,59,0.00,,---,0.00,VWS V14.01,2013-02-27 13:30:00,
2013-02-27 04:31:00,17.9,5.6,29.49,East,99,4.0,6.0,58,0.00,,---,0.00,VWS V14.01,2013-02-27 13:31:00,
2013-02-27 04:32:00,17.7,5.4,29.49,East,99,2.0,4.0,58,0.00,,---,0.00,VWS V14.01,2013-02-27 13:32:00,
2013-02-27 04:33:00,17.6,5.3,29.49,North,360,4.0,5.0,58,0.00,,---,0.00,VWS V14.01,2013-02-27 13:33:00,
2013-02-27 04:34:00,17.4,5.2,29.49,ENE,71,5.0,8.0,58,0.00,,---,0.00,VWS V14.01,2013-02-27 13:34:00,
2013-02-27 04:35:00,17.8,5.5,29.49,East,99,4.0,6.0,58,0.00,,---,0.00,VWS V14.01,2013-02-27 13:35:00,
2013-02-27 04:36:00,17.1,5.2,29.49,East,80,3.0,8.0,59,0.00,,---,0.00,VWS V14.01,2013-02-27 13:36:00,
2013-02-27 04:38:00,17.0,5.2,29.49,ESE,106,8.0,8.0,59,0.00,,---,0.00,VWS V14.01,2013-02-27 13:38:00,
2013-02-27 04:39:00,16.9,5.1,29.49,ESE,107,5.0,8.0,59,0.00,,---,0.00,VWS V14.01,2013-02-27 13:39:00,
2013-02-27 04:40:00,17.1,5.2,29.49,East,81,4.0,8.0,59,0.00,,---,0.00,VWS V14.01,2013-02-27 13:40:00,
2013-02-27 04:42:00,16.7,4.9,29.49,East,99,5.0,5.0,59,0.00,,---,0.00,VWS V14.01,2013-02-27 13:42:00,
2013-02-27 04:43:00,16.7,5.2,29.48,ESE,105,4.0,7.0,60,0.00,,---,0.00,VWS V14.01,2013-02-27 13:43:00,
2013-02-27 04:44:00,16.9,5.4,29.49,ESE,105,6.0,7.0,60,0.00,,---,0.00,VWS V14.01,2013-02-27 13:44:00,
2013-02-27 04:45:00,16.7,4.9,29.49,East,99,4.0,8.0,59,0.00,,---,0.00,VWS V14.01,2013-02-27 13:45:00,
2013-02-27 04:47:00,17.2,5.7,29.48,ENE,67,8.0,13.0,60,0.00,,---,0.00,VWS V14.01,2013-02-27 13:47:00,
2013-02-27 04:48:00,17.5,6.0,29.48,ENE,68,5.0,10.0,60,0.00,,---,0.00,VWS V14.01,2013-02-27 13:48:00,
2013-02-27 04:50:00,17.7,6.2,29.49,ENE,69,2.0,10.0,60,0.00,,---,0.00,VWS V14.01,2013-02-27 13:50:00,
2013-02-27 04:52:00,17.9,6.0,29.48,ENE,69,0.0,0.0,59,0.00,,---,0.00,VWS V14.01,2013-02-27 13:52:00,
2013-02-27 04:53:00,17.9,6.0,29.48,ENE,69,0.0,0.0,59,0.00,,---,0.00,VWS V14.01,2013-02-27 13:53:00,
2013-02-27 04:55:00,17.9,6.0,29.48,ENE,69,0.0,0.0,59,0.00,,---,0.00,VWS V14.01,2013-02-27 13:55:00,
2013-02-27 04:57:00,17.8,5.5,29.48,ENE,69,0.0,2.0,58,0.00,,---,0.00,VWS V14.01,2013-02-27 13:57:00,
2013-02-27 04:58:00,17.7,5.4,29.48,ENE,69,0.0,2.0,58,0.00,,---,0.00,VWS V14.01,2013-02-27 13:58:00,
2013-02-27 05:00:00,17.6,5.7,29.48,ENE,68,0.0,5.0,59,0.00,,---,0.00,VWS V14.01,2013-02-27 14:00:00,
2013-02-27 05:02:00,17.6,5.7,29.48,ENE,68,0.0,0.0,59,0.00,,---,0.00,VWS V14.01,2013-02-27 14:02:00,
2013-02-27 05:03:00,17.6,5.7,29.48,ENE,68,0.0,0.0,59,0.00,,---,0.00,VWS V14.01,2013-02-27 14:03:00,
2013-02-27 05:05:00,17.5,5.6,29.48,ENE,68,0.0,5.0,59,0.00,,---,0.00,VWS V14.01,2013-02-27 14:05:00,
2013-02-27 05:06:00,17.7,5.8,29.48,ENE,68,3.0,4.0,59,0.00,,---,0.00,VWS V14.01,2013-02-27 14:06:00,
2013-02-27 05:07:00,17.8,5.9,29.48,NE,43,5.0,8.0,59,0.00,,---,0.00,VWS V14.01,2013-02-27 14:07:00,
2013-02-27 05:08:00,18.0,6.1,29.48,North,360,4.0,8.0,59,0.00,,---,0.00,VWS V14.01,2013-02-27 14:08:00,
2013-02-27 05:09:00,18.1,6.2,29.48,North,360,4.0,8.0,59,0.00,,---,0.00,VWS V14.01,2013-02-27 14:09:00,
2013-02-27 05:10:00,17.7,5.8,29.48,ENE,59,4.0,5.0,59,0.00,,---,0.00,VWS V14.01,2013-02-27 14:10:00,
2013-02-27 05:11:00,18.4,6.5,29.48,North,360,0.0,8.0,59,0.00,,---,0.00,VWS V14.01,2013-02-27 14:11:00,
2013-02-27 05:12:00,18.6,6.3,29.48,NNW,344,6.0,8.0,58,0.00,,---,0.00,VWS V14.01,2013-02-27 14:12:00,
2013-02-27 05:13:00,18.9,6.6,29.48,North,5,7.0,8.0,58,0.00,,---,0.00,VWS V14.01,2013-02-27 14:13:00,
2013-02-27 05:14:00,18.9,6.6,29.48,North,5,7.0,8.0,58,0.00,,---,0.00,VWS V14.01,2013-02-27 14:14:00,
2013-02-27 05:15:00,18.5,6.6,29.48,North,360,0.0,8.0,59,0.00,,---,0.00,VWS V14.01,2013-02-27 14:15:00,
2013-02-27 05:16:00,19.2,6.5,29.48,NE,38,3.0,8.0,57,0.00,,---,0.00,VWS V14.01,2013-02-27 14:16:00,
2013-02-27 05:17:00,19.1,6.0,29.48,ENE,59,11.0,11.0,56,0.00,,---,0.00,VWS V14.01,2013-02-27 14:17:00,
2013-02-27 05:19:00,18.9,5.8,29.47,ENE,58,11.0,13.0,56,0.00,,---,0.00,VWS V14.01,2013-02-27 14:19:00,
2013-02-27 05:20:00,19.2,6.5,29.48,NE,43,6.0,9.0,57,0.00,,---,0.00,VWS V14.01,2013-02-27 14:20:00,
2013-02-27 05:21:00,18.8,6.1,29.47,NE,37,8.0,13.0,57,0.00,,---,0.00,VWS V14.01,2013-02-27 14:21:00,
2013-02-27 05:23:00,18.6,5.5,29.47,NE,48,0.0,8.0,56,0.00,,---,0.00,VWS V14.01,2013-02-27 14:23:00,
2013-02-27 05:24:00,18.6,5.5,29.47,NE,48,3.0,8.0,56,0.00,,---,0.00,VWS V14.01,2013-02-27 14:24:00,
2013-02-27 05:25:00,18.8,5.7,29.47,NE,46,6.0,13.0,56,0.00,,---,0.00,VWS V14.01,2013-02-27 14:25:00,
2013-02-27 05:26:00,18.5,7.7,29.47,NE,48,0.0,8.0,62,0.00,,---,0.00,VWS V14.01,2013-02-27 14:26:00,
2013-02-27 05:28:00,18.4,5.7,29.47,NE,48,0.0,0.0,57,0.00,,---,0.00,VWS V14.01,2013-02-27 14:28:00,
2013-02-27 05:29:00,18.4,5.7,29.47,NE,48,0.0,0.0,57,0.00,,---,0.00,VWS V14.01,2013-02-27 14:29:00,
2013-02-27 05:30:00,18.5,7.7,29.47,NE,48,0.0,8.0,62,0.00,,---,0.00,VWS V14.01,2013-02-27 14:30:00,
2013-02-27 05:31:00,18.2,5.5,29.47,NE,48,3.0,3.0,57,0.00,,---,0.00,VWS V14.01,2013-02-27 14:31:00,
2013-02-27 05:33:00,18.2,5.9,29.47,North,5,1.0,5.0,58,0.00,,---,0.00,VWS V14.01,2013-02-27 14:33:00,
2013-02-27 05:34:00,18.2,5.9,29.47,North,5,0.0,5.0,58,0.00,,---,0.00,VWS V14.01,2013-02-27 14:34:00,
2013-02-27 05:35:00,18.2,5.5,29.47,NE,48,1.0,3.0,57,0.00,,---,0.00,VWS V14.01,2013-02-27 14:35:00,
2013-02-27 05:36:00,18.5,6.2,29.46,West,277,6.0,8.0,58,0.00,,---,0.00,VWS V14.01,2013-02-27 14:36:00,
2013-02-27 05:39:00,18.8,6.1,29.46,West,275,4.0,5.0,57,0.00,,---,0.00,VWS V14.01,2013-02-27 14:39:00,
2013-02-27 05:40:00,18.5,6.2,29.46,West,275,4.0,8.0,58,0.00,,---,0.00,VWS V14.01,2013-02-27 14:40:00,
2013-02-27 05:42:00,19.0,6.3,29.46,WSW,242,3.0,3.0,57,0.00,,---,0.00,VWS V14.01,2013-02-27 14:42:00,
2013-02-27 05:44:00,19.0,6.3,29.46,WSW,242,0.0,4.0,57,0.00,,---,0.00,VWS V14.01,2013-02-27 14:44:00,
2013-02-27 05:45:00,19.0,6.3,29.46,WSW,242,1.0,6.0,57,0.00,,---,0.00,VWS V14.01,2013-02-27 14:45:00,
2013-02-27 05:47:00,18.9,6.2,29.46,WSW,242,0.0,0.0,57,0.00,,---,0.00,VWS V14.01,2013-02-27 14:47:00,
2013-02-27 05:49:00,18.8,6.1,29.46,WSW,242,0.0,3.0,57,0.00,,---,0.00,VWS V14.01,2013-02-27 14:49:00,
2013-02-27 05:50:00,18.9,6.2,29.46,WSW,242,0.0,4.0,57,0.00,,---,0.00,VWS V14.01,2013-02-27 14:50:00,
2013-02-27 05:52:00,18.4,6.1,29.46,South,181,3.0,3.0,58,0.00,,---,0.00,VWS V14.01,2013-02-27 14:52:00,
2013-02-27 05:54:00,18.1,5.8,29.46,South,181,0.0,4.0,58,0.00,,---,0.00,VWS V14.01,2013-02-27 14:54:00,
2013-02-27 05:55:00,18.0,5.7,29.46,ESE,114,7.0,7.0,58,0.00,,---,0.00,VWS V14.01,2013-02-27 14:55:00,
2013-02-27 05:57:00,17.9,6.0,29.46,ESE,115,6.0,6.0,59,0.00,,---,0.00,VWS V14.01,2013-02-27 14:57:00,
2013-02-27 05:59:00,17.9,6.4,29.46,ESE,115,1.0,6.0,60,0.00,,---,0.00,VWS V14.01,2013-02-27 14:59:00,
2013-02-27 06:00:00,17.9,6.4,29.46,ESE,115,2.0,6.0,60,0.00,,---,0.00,VWS V14.01,2013-02-27 15:00:00,
2013-02-27 06:02:00,18.3,7.1,29.46,SE,124,2.0,4.0,61,0.00,,---,0.00,VWS V14.01,2013-02-27 15:02:00,
2013-02-27 06:04:00,18.6,6.7,29.46,SE,124,0.0,6.0,59,0.00,,---,0.00,VWS V14.01,2013-02-27 15:04:00,
2013-02-27 06:05:00,18.6,6.7,29.45,SE,124,0.0,6.0,59,0.00,,---,0.00,VWS V14.01,2013-02-27 15:05:00,
2013-02-27 06:07:00,18.6,6.7,29.45,SE,124,0.0,2.0,59,0.00,,---,0.00,VWS V14.01,2013-02-27 15:07:00,
2013-02-27 06:10:00,18.5,6.6,29.45,SE,124,0.0,5.0,59,0.00,,---,0.00,VWS V14.01,2013-02-27 15:10:00,
2013-02-27 06:12:00,18.4,6.8,29.45,NW,306,5.0,8.0,60,0.00,,---,0.00,VWS V14.01,2013-02-27 15:12:00,
2013-02-27 06:15:00,18.7,7.5,29.45,WNW,300,3.0,9.0,61,0.00,,---,0.00,VWS V14.01,2013-02-27 15:15:00,
2013-02-27 06:18:00,19.5,8.6,29.45,NNW,345,5.0,7.0,62,0.00,,---,0.00,VWS V14.01,2013-02-27 15:18:00,
2013-02-27 06:20:00,19.9,8.6,29.45,North,349,6.0,9.0,61,0.00,,---,0.00,VWS V14.01,2013-02-27 15:20:00,
2013-02-27 06:21:00,20.0,8.7,29.45,North,349,3.0,9.0,61,0.00,,---,0.00,VWS V14.01,2013-02-27 15:21:00,
2013-02-27 06:23:00,20.2,8.9,29.45,North,350,5.0,6.0,61,0.00,,---,0.00,VWS V14.01,2013-02-27 15:23:00,
2013-02-27 06:25:00,20.4,8.7,29.45,NNW,331,5.0,9.0,60,0.00,,---,0.00,VWS V14.01,2013-02-27 15:25:00,
2013-02-27 06:26:00,20.5,8.8,29.45,NW,321,3.0,9.0,60,0.00,,---,0.00,VWS V14.01,2013-02-27 15:26:00,
2013-02-27 06:28:00,20.6,8.9,29.44,WNW,289,4.0,5.0,60,0.00,,---,0.00,VWS V14.01,2013-02-27 15:28:00,
2013-02-27 06:30:00,20.7,9.0,29.44,NNW,336,6.0,10.0,60,0.00,,---,0.00,VWS V14.01,2013-02-27 15:30:00,
2013-02-27 06:31:00,20.8,9.1,29.44,NW,317,4.0,10.0,60,0.00,,---,0.00,VWS V14.01,2013-02-27 15:31:00,
2013-02-27 06:33:00,20.8,9.1,29.44,NW,309,5.0,7.0,60,0.00,,---,0.00,VWS V14.01,2013-02-27 15:33:00,
2013-02-27 06:35:00,20.8,8.8,29.44,NNW,329,4.0,9.0,59,0.00,,---,0.00,VWS V14.01,2013-02-27 15:35:00,
2013-02-27 06:36:00,20.8,8.8,29.44,NNW,329,2.0,9.0,59,0.00,,---,0.00,VWS V14.01,2013-02-27 15:36:00,
2013-02-27 06:38:00,20.7,8.6,29.44,NW,321,8.0,10.0,59,0.00,,---,0.00,VWS V14.01,2013-02-27 15:38:00,
2013-02-27 06:40:00,20.8,9.1,29.44,NW,311,5.0,14.0,60,0.00,,---,0.00,VWS V14.01,2013-02-27 15:40:00,
2013-02-27 06:41:00,20.8,9.1,29.44,NW,313,6.0,14.0,60,0.00,,---,0.00,VWS V14.01,2013-02-27 15:41:00,
2013-02-27 06:43:00,20.9,9.2,29.44,NW,309,6.0,8.0,60,0.00,,---,0.00,VWS V14.01,2013-02-27 15:43:00,
2013-02-27 06:45:00,20.9,9.2,29.44,NNW,333,6.0,14.0,60,0.00,,---,0.00,VWS V14.01,2013-02-27 15:45:00,
2013-02-27 06:46:00,20.9,9.2,29.44,NW,309,3.0,9.0,60,0.00,,---,0.00,VWS V14.01,2013-02-27 15:46:00,
2013-02-27 06:48:00,20.8,9.1,29.44,NW,320,7.0,9.0,60,0.00,,---,0.00,VWS V14.01,2013-02-27 15:48:00,
2013-02-27 06:50:00,20.8,8.8,29.44,WNW,300,4.0,9.0,59,0.00,,---,0.00,VWS V14.01,2013-02-27 15:50:00,
2013-02-27 06:51:00,21.1,9.8,29.44,NNW,327,10.0,13.0,61,0.00,,---,0.00,VWS V14.01,2013-02-27 15:51:00,
2013-02-27 06:53:00,21.4,9.7,29.44,NNW,330,6.0,14.0,60,0.00,,---,0.00,VWS V14.01,2013-02-27 15:53:00,
2013-02-27 06:55:00,21.1,9.4,29.44,NNW,329,7.0,13.0,60,0.00,,---,0.00,VWS V14.01,2013-02-27 15:55:00,
2013-02-27 06:56:00,21.5,9.4,29.44,NW,323,13.0,14.0,59,0.00,,---,0.00,VWS V14.01,2013-02-27 15:56:00,
2013-02-27 06:58:00,21.6,9.5,29.44,West,280,2.0,5.0,59,0.00,,---,0.00,VWS V14.01,2013-02-27 15:58:00,
2013-02-27 07:00:00,21.5,9.4,29.44,WNW,299,5.0,14.0,59,0.00,,---,0.00,VWS V14.01,2013-02-27 16:00:00,
2013-02-27 07:01:00,21.3,9.2,29.44,NNW,333,3.0,9.0,59,0.00,,---,0.00,VWS V14.01,2013-02-27 16:01:00,
2013-02-27 07:02:00,21.3,9.2,29.44,NNW,328,3.0,4.0,59,0.00,,---,0.00,VWS V14.01,2013-02-27 16:02:00,
2013-02-27 07:03:00,21.1,9.0,29.44,NW,321,6.0,12.0,59,0.00,,---,0.00,VWS V14.01,2013-02-27 16:03:00,
2013-02-27 07:05:00,21.3,9.2,29.44,NNW,328,4.0,9.0,59,0.00,,---,0.00,VWS V14.01,2013-02-27 16:05:00,
2013-02-27 07:07:00,21.0,8.9,29.43,NNW,327,13.0,13.0,59,0.00,,---,0.00,VWS V14.01,2013-02-27 16:07:00,
2013-02-27 07:08:00,21.0,9.3,29.43,NNW,336,12.0,13.0,60,0.00,,---,0.00,VWS V14.01,2013-02-27 16:08:00,
2013-02-27 07:10:00,21.0,8.9,29.43,NNW,327,13.0,13.0,59,0.00,,---,0.00,VWS V14.01,2013-02-27 16:10:00,
2013-02-27 07:12:00,21.2,9.1,29.44,NW,312,10.0,12.0,59,0.00,,---,0.00,VWS V14.01,2013-02-27 16:12:00,
2013-02-27 07:14:00,21.1,9.0,29.44,NW,325,8.0,13.0,59,0.00,,---,0.00,VWS V14.01,2013-02-27 16:14:00,
2013-02-27 07:15:00,21.1,9.0,29.43,NNW,330,12.0,13.0,59,0.00,,---,0.00,VWS V14.01,2013-02-27 16:15:00,
2013-02-27 07:17:00,20.8,8.8,29.44,WNW,300,7.0,10.0,59,0.00,,---,0.00,VWS V14.01,2013-02-27 16:17:00,
2013-02-27 07:19:00,20.6,8.6,29.44,NW,304,5.0,14.0,59,0.00,,---,0.00,VWS V14.01,2013-02-27 16:19:00,
2013-02-27 07:20:00,20.9,8.8,29.44,NW,319,6.0,14.0,59,0.00,,---,0.00,VWS V14.01,2013-02-27 16:20:00,
2013-02-27 07:22:00,20.2,8.2,29.44,WNW,297,7.0,7.0,59,0.00,,---,0.00,VWS V14.01,2013-02-27 16:22:00,
2013-02-27 07:23:00,20.0,8.0,29.44,NW,310,4.0,9.0,59,0.00,,---,0.00,VWS V14.01,2013-02-27 16:23:00,
2013-02-27 07:24:00,19.8,7.8,29.43,WNW,289,7.0,10.0,59,0.00,,---,0.00,VWS V14.01,2013-02-27 16:24:00,
2013-02-27 07:25:00,20.2,8.2,29.44,NW,307,6.0,14.0,59,0.00,,---,0.00,VWS V14.01,2013-02-27 16:25:00,
2013-02-27 07:27:00,19.5,7.9,29.43,WNW,286,3.0,6.0,60,0.00,,---,0.00,VWS V14.01,2013-02-27 16:27:00,
2013-02-27 07:28:00,19.4,7.8,29.43,West,279,1.0,6.0,60,0.00,,---,0.00,VWS V14.01,2013-02-27 16:28:00,
2013-02-27 07:29:00,19.3,7.7,29.43,West,265,2.0,7.0,60,0.00,,---,0.00,VWS V14.01,2013-02-27 16:29:00,
2013-02-27 07:30:00,19.5,7.9,29.43,WNW,284,5.0,10.0,60,0.00,,---,0.00,VWS V14.01,2013-02-27 16:30:00,
2013-02-27 07:32:00,19.0,7.4,29.43,WNW,283,6.0,6.0,60,0.00,,---,0.00,VWS V14.01,2013-02-27 16:32:00,
2013-02-27 07:33:00,18.8,7.2,29.43,West,263,3.0,9.0,60,0.00,,---,0.00,VWS V14.01,2013-02-27 16:33:00,
2013-02-27 07:35:00,18.6,7.4,29.43,WNW,290,4.0,13.0,61,0.00,,---,0.00,VWS V14.01,2013-02-27 16:35:00,
2013-02-27 07:38:00,18.3,7.5,29.42,WNW,285,15.0,15.0,62,0.00,,---,0.00,VWS V14.01,2013-02-27 16:38:00,
2013-02-27 07:40:00,18.1,7.3,29.41,West,270,7.0,15.0,62,0.00,,---,0.00,VWS V14.01,2013-02-27 16:40:00,
2013-02-27 07:43:00,17.9,7.4,29.41,NW,309,8.0,16.0,63,0.00,,---,0.00,VWS V14.01,2013-02-27 16:43:00,
2013-02-27 07:45:00,17.9,7.8,29.40,WNW,300,16.0,18.0,64,0.00,,---,0.00,VWS V14.01,2013-02-27 16:45:00,
2013-02-27 07:48:00,17.9,7.4,29.40,WNW,290,8.0,15.0,63,0.00,,---,0.00,VWS V14.01,2013-02-27 16:48:00,
2013-02-27 07:50:00,18.3,8.2,29.39,NW,306,11.0,23.0,64,0.00,,---,0.00,VWS V14.01,2013-02-27 16:50:00,
2013-02-27 07:53:00,18.9,8.8,29.39,West,277,9.0,22.0,64,0.00,,---,0.00,VWS V14.01,2013-02-27 16:53:00,
2013-02-27 07:55:00,18.6,8.5,29.39,NNW,344,13.0,23.0,64,0.00,,---,0.00,VWS V14.01,2013-02-27 16:55:00,
2013-02-27 07:56:00,19.1,8.6,29.39,WNW,298,9.0,23.0,63,0.00,,---,0.00,VWS V14.01,2013-02-27 16:56:00,
2013-02-27 07:58:00,18.9,8.4,29.39,West,271,10.0,14.0,63,0.00,,---,0.00,VWS V14.01,2013-02-27 16:58:00,
2013-02-27 08:00:00,19.1,8.6,29.39,WNW,291,13.0,23.0,63,0.00,,---,0.00,VWS V14.01,2013-02-27 17:00:00,
2013-02-27 08:01:00,18.6,8.1,29.39,WNW,294,7.0,19.0,63,0.00,,---,0.00,VWS V14.01,2013-02-27 17:01:00,
2013-02-27 08:03:00,18.7,8.6,29.38,WNW,295,10.0,13.0,64,0.00,,---,0.00,VWS V14.01,2013-02-27 17:03:00,
2013-02-27 08:04:00,18.7,8.6,29.38,WNW,292,10.0,13.0,64,0.00,,---,0.00,VWS V14.01,2013-02-27 17:04:00,
2013-02-27 08:05:00,18.6,8.1,29.39,West,272,7.0,19.0,63,0.00,,---,0.00,VWS V14.01,2013-02-27 17:05:00,
2013-02-27 08:06:00,19.6,9.8,29.39,NW,317,19.0,21.0,65,0.00,,---,0.00,VWS V14.01,2013-02-27 17:06:00,
2013-02-27 08:08:00,20.4,10.2,29.38,NW,309,14.0,17.0,64,0.00,,---,0.00,VWS V14.01,2013-02-27 17:08:00,
2013-02-27 08:09:00,20.5,10.3,29.38,WNW,302,11.0,17.0,64,0.00,,---,0.00,VWS V14.01,2013-02-27 17:09:00,
2013-02-27 08:10:00,19.8,9.9,29.39,NW,311,14.0,21.0,65,0.00,,---,0.00,VWS V14.01,2013-02-27 17:10:00,
2013-02-27 08:11:00,21.6,11.0,29.38,WSW,257,11.0,19.0,63,0.00,,---,0.00,VWS V14.01,2013-02-27 17:11:00,
2013-02-27 08:13:00,22.3,11.3,29.38,NNW,344,15.0,19.0,62,0.00,,---,0.00,VWS V14.01,2013-02-27 17:13:00,
2013-02-27 08:14:00,22.5,11.5,29.38,NNW,331,10.0,19.0,62,0.00,,---,0.00,VWS V14.01,2013-02-27 17:14:00,
2013-02-27 08:15:00,21.8,11.2,29.38,NW,315,10.0,19.0,63,0.00,,---,0.00,VWS V14.01,2013-02-27 17:15:00,
2013-02-27 08:16:00,22.9,11.5,29.38,WNW,298,13.0,19.0,61,0.00,,---,0.00,VWS V14.01,2013-02-27 17:16:00,
2013-02-27 08:18:00,23.1,11.3,29.38,NW,314,15.0,22.0,60,0.00,,---,0.00,VWS V14.01,2013-02-27 17:18:00,
2013-02-27 08:19:00,23.1,11.3,29.39,NW,312,8.0,22.0,60,0.00,,---,0.00,VWS V14.01,2013-02-27 17:19:00,
2013-02-27 08:20:00,23.0,11.6,29.38,NW,325,12.0,19.0,61,0.00,,---,0.00,VWS V14.01,2013-02-27 17:20:00,
2013-02-27 08:21:00,23.3,11.5,29.39,NW,324,13.0,22.0,60,0.00,,---,0.00,VWS V14.01,2013-02-27 17:21:00,
2013-02-27 08:24:00,23.4,11.2,29.39,WNW,290,3.0,13.0,59,0.00,,---,0.00,VWS V14.01,2013-02-27 17:24:00,
2013-02-27 08:25:00,23.4,11.6,29.39,WNW,292,7.0,22.0,60,0.00,,---,0.00,VWS V14.01,2013-02-27 17:25:00,
2013-02-27 08:26:00,23.3,10.7,29.39,WNW,292,7.0,13.0,58,0.00,,---,0.00,VWS V14.01,2013-02-27 17:26:00,
2013-02-27 08:29:00,22.6,10.1,29.39,WSW,246,8.0,9.0,58,0.00,,---,0.00,VWS V14.01,2013-02-27 17:29:00,
2013-02-27 08:30:00,23.1,10.5,29.39,West,262,4.0,13.0,58,0.00,,---,0.00,VWS V14.01,2013-02-27 17:30:00,
2013-02-27 08:31:00,22.5,10.4,29.39,NW,326,7.0,17.0,59,0.00,,---,0.00,VWS V14.01,2013-02-27 17:31:00,
2013-02-27 08:34:00,22.7,10.5,29.39,NW,309,5.0,13.0,59,0.00,,---,0.00,VWS V14.01,2013-02-27 17:34:00,
2013-02-27 08:35:00,22.5,10.4,29.39,NNW,342,10.0,17.0,59,0.00,,---,0.00,VWS V14.01,2013-02-27 17:35:00,
2013-02-27 08:37:00,22.8,10.6,29.39,WNW,297,12.0,13.0,59,0.00,,---,0.00,VWS V14.01,2013-02-27 17:37:00,
2013-02-27 08:39:00,23.0,11.2,29.38,NW,311,7.0,13.0,60,0.00,,---,0.00,VWS V14.01,2013-02-27 17:39:00,
2013-02-27 08:40:00,22.8,10.6,29.39,WNW,297,12.0,13.0,59,0.00,,---,0.00,VWS V14.01,2013-02-27 17:40:00,
2013-02-27 08:42:00,23.2,11.0,29.38,NNW,335,3.0,16.0,59,0.00,,---,0.00,VWS V14.01,2013-02-27 17:42:00,
2013-02-27 08:44:00,23.4,11.2,29.39,North,350,6.0,11.0,59,0.00,,---,0.00,VWS V14.01,2013-02-27 17:44:00,
2013-02-27 08:45:00,23.4,11.2,29.39,NE,49,3.0,11.0,59,0.00,,---,0.00,VWS V14.01,2013-02-27 17:45:00,
2013-02-27 08:47:00,23.6,11.0,29.39,NNW,343,10.0,17.0,58,0.00,,---,0.00,VWS V14.01,2013-02-27 17:47:00,
2013-02-27 08:49:00,23.8,11.2,29.38,North,355,14.0,19.0,58,0.00,,---,0.00,VWS V14.01,2013-02-27 17:49:00,
2013-02-27 08:50:00,23.9,10.9,29.38,NNW,340,14.0,19.0,57,0.00,,---,0.00,VWS V14.01,2013-02-27 17:50:00,
2013-02-27 08:52:00,24.0,11.0,29.38,NW,320,14.0,23.0,57,0.00,,---,0.00,VWS V14.01,2013-02-27 17:52:00,
2013-02-27 08:54:00,23.7,10.7,29.38,North,11,14.0,15.0,57,0.00,,---,0.00,VWS V14.01,2013-02-27 17:54:00,
2013-02-27 08:55:00,23.4,10.4,29.38,NW,325,16.0,20.0,57,0.00,,---,0.00,VWS V14.01,2013-02-27 17:55:00,
2013-02-27 08:57:00,23.4,10.4,29.38,NNW,344,15.0,15.0,57,0.00,,---,0.00,VWS V14.01,2013-02-27 17:57:00,
2013-02-27 08:59:00,23.8,11.2,29.38,NNW,336,13.0,19.0,58,0.00,,---,0.00,VWS V14.01,2013-02-27 17:59:00,
2013-02-27 09:00:00,23.8,11.2,29.38,NW,317,11.0,19.0,58,0.00,,---,0.00,VWS V14.01,2013-02-27 18:00:00,
2013-02-27 09:02:00,24.0,11.0,29.37,NNW,329,14.0,15.0,57,0.00,,---,0.00,VWS V14.01,2013-02-27 18:02:00,
2013-02-27 09:05:00,24.1,11.1,29.37,North,351,13.0,20.0,57,0.00,,---,0.00,VWS V14.01,2013-02-27 18:05:00,
2013-02-27 09:07:00,24.3,11.3,29.37,North,360,10.0,12.0,57,0.00,,---,0.00,VWS V14.01,2013-02-27 18:07:00,
2013-02-27 09:10:00,23.9,10.5,29.37,NNW,345,18.0,22.0,56,0.00,,---,0.00,VWS V14.01,2013-02-27 18:10:00,
2013-02-27 09:12:00,23.3,9.9,29.37,NNW,333,21.0,23.0,56,0.00,,---,0.00,VWS V14.01,2013-02-27 18:12:00,
2013-02-27 09:15:00,22.5,9.6,29.36,NNW,344,13.0,24.0,57,0.00,,---,0.00,VWS V14.01,2013-02-27 18:15:00,
2013-02-27 09:16:00,22.4,9.9,29.36,North,5,11.0,24.0,58,0.00,,---,0.00,VWS V14.01,2013-02-27 18:16:00,
2013-02-27 09:17:00,22.7,10.5,29.36,NW,319,16.0,19.0,59,0.00,,---,0.00,VWS V14.01,2013-02-27 18:17:00,
2013-02-27 09:20:00,24.2,11.6,29.37,NNW,335,14.0,25.0,58,0.00,,---,0.00,VWS V14.01,2013-02-27 18:20:00,
2013-02-27 09:21:00,24.3,11.7,29.37,North,355,13.0,25.0,58,0.00,,---,0.00,VWS V14.01,2013-02-27 18:21:00,
2013-02-27 09:22:00,24.8,11.7,29.37,NNW,346,15.0,22.0,57,0.00,,---,0.00,VWS V14.01,2013-02-27 18:22:00,
2013-02-27 09:25:00,24.5,11.5,29.37,NW,322,14.0,25.0,57,0.00,,---,0.00,VWS V14.01,2013-02-27 18:25:00,
2013-02-27 09:26:00,24.9,11.4,29.37,NNW,347,15.0,25.0,56,0.00,,---,0.00,VWS V14.01,2013-02-27 18:26:00,
2013-02-27 09:27:00,24.8,11.3,29.37,NNW,344,17.0,24.0,56,0.00,,---,0.00,VWS V14.01,2013-02-27 18:27:00,
2013-02-27 09:30:00,24.8,11.3,29.37,NNW,341,21.0,25.0,56,0.00,,---,0.00,VWS V14.01,2013-02-27 18:30:00,
2013-02-27 09:31:00,23.5,9.3,29.37,North,355,17.0,25.0,54,0.00,,---,0.00,VWS V14.01,2013-02-27 18:31:00,
2013-02-27 09:32:00,22.6,9.3,29.37,NNW,345,18.0,20.0,56,0.00,,---,0.00,VWS V14.01,2013-02-27 18:32:00,
2013-02-27 09:35:00,23.0,9.2,29.37,North,355,14.0,25.0,55,0.00,,---,0.00,VWS V14.01,2013-02-27 18:35:00,
2013-02-27 09:36:00,20.7,8.3,29.36,NNW,344,19.0,26.0,58,0.00,,---,0.00,VWS V14.01,2013-02-27 18:36:00,
2013-02-27 09:37:00,19.9,7.5,29.36,NNW,346,18.0,24.0,58,0.00,,---,0.00,VWS V14.01,2013-02-27 18:37:00,
2013-02-27 09:40:00,20.4,8.0,29.36,North,355,21.0,26.0,58,0.00,,---,0.00,VWS V14.01,2013-02-27 18:40:00,
2013-02-27 09:41:00,19.5,8.3,29.36,North,355,20.0,25.0,61,0.00,,---,0.00,VWS V14.01,2013-02-27 18:41:00,
2013-02-27 09:42:00,19.6,8.7,29.36,NNW,328,22.0,25.0,62,0.00,,---,0.00,VWS V14.01,2013-02-27 18:42:00,
2013-02-27 09:45:00,19.6,8.7,29.36,NNW,328,22.0,25.0,62,0.00,,---,0.00,VWS V14.01,2013-02-27 18:45:00,
2013-02-27 09:46:00,21.1,9.8,29.35,NNW,346,26.0,26.0,61,0.00,,---,0.00,VWS V14.01,2013-02-27 18:46:00,
2013-02-27 09:47:00,21.2,9.5,29.35,NW,319,20.0,26.0,60,0.00,,---,0.00,VWS V14.01,2013-02-27 18:47:00,
2013-02-27 09:50:00,21.2,9.5,29.35,NW,319,20.0,26.0,60,0.00,,---,0.00,VWS V14.01,2013-02-27 18:50:00,
2013-02-27 09:51:00,21.7,10.0,29.36,NNW,343,15.0,26.0,60,0.00,,---,0.00,VWS V14.01,2013-02-27 18:51:00,
2013-02-27 09:52:00,21.8,10.1,29.36,North,355,21.0,26.0,60,0.00,,---,0.00,VWS V14.01,2013-02-27 18:52:00,
2013-02-27 09:53:00,21.9,9.8,29.36,NW,325,21.0,28.0,59,0.00,,---,0.00,VWS V14.01,2013-02-27 18:53:00,
2013-02-27 09:55:00,21.8,10.1,29.36,NNW,329,24.0,28.0,60,0.00,,---,0.00,VWS V14.01,2013-02-27 18:55:00,
2013-02-27 09:56:00,21.4,9.3,29.36,North,355,19.0,28.0,59,0.00,,---,0.00,VWS V14.01,2013-02-27 18:56:00,
2013-02-27 09:57:00,21.1,9.0,29.36,NNW,347,17.0,26.0,59,0.00,,---,0.00,VWS V14.01,2013-02-27 18:57:00,
2013-02-27 09:58:00,21.1,9.0,29.36,North,5,15.0,26.0,59,0.00,,---,0.00,VWS V14.01,2013-02-27 18:58:00,
2013-02-27 10:00:00,21.4,9.3,29.36,North,10,18.0,28.0,59,0.00,,---,0.00,VWS V14.01,2013-02-27 19:00:00,
2013-02-27 10:02:00,19.8,8.2,29.36,North,349,19.0,19.0,60,0.00,,---,0.00,VWS V14.01,2013-02-27 19:02:00,
2013-02-27 10:03:00,19.4,7.8,29.36,NNW,338,20.0,24.0,60,0.00,,---,0.00,VWS V14.01,2013-02-27 19:03:00,
2013-02-27 10:05:00,19.8,8.2,29.36,North,5,14.0,28.0,60,0.00,,---,0.00,VWS V14.01,2013-02-27 19:05:00,
2013-02-27 10:07:00,20.0,9.1,29.36,North,350,19.0,27.0,62,0.00,,---,0.00,VWS V14.01,2013-02-27 19:07:00,
2013-02-27 10:08:00,20.3,9.4,29.35,North,5,19.0,23.0,62,0.00,,---,0.00,VWS V14.01,2013-02-27 19:08:00,
2013-02-27 10:10:00,20.0,9.1,29.36,North,355,15.0,27.0,62,0.00,,---,0.00,VWS V14.01,2013-02-27 19:10:00,
2013-02-27 10:12:00,21.5,10.1,29.34,NNW,332,21.0,21.0,61,0.00,,---,0.00,VWS V14.01,2013-02-27 19:12:00,
2013-02-27 10:13:00,21.8,10.1,29.34,North,349,16.0,28.0,60,0.00,,---,0.00,VWS V14.01,2013-02-27 19:13:00,
2013-02-27 10:15:00,21.5,10.1,29.34,North,360,17.0,29.0,61,0.00,,---,0.00,VWS V14.01,2013-02-27 19:15:00,
2013-02-27 10:17:00,22.3,10.2,29.34,North,351,22.0,30.0,59,0.00,,---,0.00,VWS V14.01,2013-02-27 19:17:00,
2013-02-27 10:18:00,22.3,10.2,29.34,NNW,327,21.0,30.0,59,0.00,,---,0.00,VWS V14.01,2013-02-27 19:18:00,
2013-02-27 10:20:00,22.4,10.3,29.34,NNW,344,30.0,32.0,59,0.00,,---,0.00,VWS V14.01,2013-02-27 19:20:00,
2013-02-27 10:23:00,22.5,10.4,29.33,North,355,20.0,30.0,59,0.00,,---,0.00,VWS V14.01,2013-02-27 19:23:00,
2013-02-27 10:25:00,22.3,10.2,29.33,NNW,342,19.0,30.0,59,0.00,,---,0.00,VWS V14.01,2013-02-27 19:25:00,
2013-02-27 10:28:00,23.4,11.2,29.33,North,355,20.0,27.0,59,0.00,,---,0.00,VWS V14.01,2013-02-27 19:28:00,
2013-02-27 10:30:00,23.1,10.9,29.34,NNW,332,22.0,30.0,59,0.00,,---,0.00,VWS V14.01,2013-02-27 19:30:00,
2013-02-27 10:33:00,24.2,11.2,29.34,NNW,338,19.0,22.0,57,0.00,,---,0.00,VWS V14.01,2013-02-27 19:33:00,
2013-02-27 10:34:00,24.3,11.3,29.33,NNW,339,20.0,22.0,57,0.00,,---,0.00,VWS V14.01,2013-02-27 19:34:00,
2013-02-27 10:35:00,24.0,11.0,29.34,NNW,332,22.0,28.0,57,0.00,,---,0.00,VWS V14.01,2013-02-27 19:35:00,
2013-02-27 10:38:00,24.4,11.4,29.34,North,355,22.0,25.0,57,0.00,,---,0.00,VWS V14.01,2013-02-27 19:38:00,
2013-02-27 10:39:00,24.4,11.4,29.34,NW,324,22.0,25.0,57,0.00,,---,0.00,VWS V14.01,2013-02-27 19:39:00,
2013-02-27 10:40:00,24.4,11.4,29.34,NNW,346,19.0,25.0,57,0.00,,---,0.00,VWS V14.01,2013-02-27 19:40:00,
2013-02-27 10:43:00,24.2,10.8,29.34,NNW,346,15.0,24.0,56,0.00,,---,0.00,VWS V14.01,2013-02-27 19:43:00,
2013-02-27 10:44:00,24.2,10.8,29.34,North,351,16.0,24.0,56,0.00,,---,0.00,VWS V14.01,2013-02-27 19:44:00,
2013-02-27 10:45:00,24.1,10.7,29.34,NNW,331,16.0,24.0,56,0.00,,---,0.00,VWS V14.01,2013-02-27 19:45:00,
2013-02-27 10:49:00,23.6,10.2,29.35,NNW,340,14.0,22.0,56,0.00,,---,0.00,VWS V14.01,2013-02-27 19:49:00,
2013-02-27 10:50:00,23.4,10.4,29.35,NNW,344,16.0,22.0,57,0.00,,---,0.00,VWS V14.01,2013-02-27 19:50:00,
2013-02-27 10:54:00,23.1,10.1,29.35,NNW,346,21.0,26.0,57,0.00,,---,0.00,VWS V14.01,2013-02-27 19:54:00,
2013-02-27 10:55:00,23.1,10.1,29.35,North,355,18.0,26.0,57,0.00,,---,0.00,VWS V14.01,2013-02-27 19:55:00,
2013-02-27 10:59:00,22.8,9.9,29.34,NNW,332,18.0,23.0,57,0.00,,---,0.00,VWS V14.01,2013-02-27 19:59:00,
2013-02-27 11:00:00,22.8,9.9,29.34,North,350,15.0,23.0,57,0.00,,---,0.00,VWS V14.01,2013-02-27 20:00:00,
2013-02-27 11:04:00,22.7,10.2,29.35,North,355,13.0,22.0,58,0.00,,---,0.00,VWS V14.01,2013-02-27 20:04:00,
2013-02-27 11:05:00,22.6,10.1,29.35,North,355,23.0,23.0,58,0.00,,---,0.00,VWS V14.01,2013-02-27 20:05:00,
2013-02-27 11:09:00,22.5,9.6,29.35,NNW,346,21.0,24.0,57,0.00,,---,0.00,VWS V14.01,2013-02-27 20:09:00,
2013-02-27 11:10:00,22.6,9.7,29.35,North,360,14.0,24.0,57,0.00,,---,0.00,VWS V14.01,2013-02-27 20:10:00,
2013-02-27 11:14:00,22.7,9.8,29.35,North,350,21.0,27.0,57,0.00,,---,0.00,VWS V14.01,2013-02-27 20:14:00,
2013-02-27 11:15:00,22.7,9.8,29.35,NNW,340,17.0,27.0,57,0.00,,---,0.00,VWS V14.01,2013-02-27 20:15:00,
2013-02-27 11:19:00,23.0,10.1,29.35,North,355,17.0,22.0,57,0.00,,---,0.00,VWS V14.01,2013-02-27 20:19:00,
2013-02-27 11:20:00,23.2,10.2,29.35,NNW,348,17.0,22.0,57,0.00,,---,0.00,VWS V14.01,2013-02-27 20:20:00,
2013-02-27 11:21:00,23.2,9.8,29.35,North,355,18.0,22.0,56,0.00,,---,0.00,VWS V14.01,2013-02-27 20:21:00,
2013-02-27 11:24:00,23.3,9.9,29.35,North,355,15.0,24.0,56,0.00,,---,0.00,VWS V14.01,2013-02-27 20:24:00,
2013-02-27 11:25:00,23.4,10.0,29.35,North,5,18.0,24.0,56,0.00,,---,0.00,VWS V14.01,2013-02-27 20:25:00,
2013-02-27 11:26:00,23.4,10.0,29.34,NNW,329,18.0,24.0,56,0.00,,---,0.00,VWS V14.01,2013-02-27 20:26:00,
2013-02-27 11:30:00,23.4,10.0,29.34,NNW,347,18.0,24.0,56,0.00,,---,0.00,VWS V14.01,2013-02-27 20:30:00,
2013-02-27 11:33:00,23.5,9.7,29.35,North,355,17.0,22.0,55,0.00,,---,0.00,VWS V14.01,2013-02-27 20:33:00,
2013-02-27 11:34:00,24.0,9.8,29.35,NNW,336,14.0,25.0,54,0.00,,---,0.00,VWS V14.01,2013-02-27 20:34:00,
2013-02-27 11:35:00,23.8,10.0,29.35,NNW,345,20.0,26.0,55,0.00,,---,0.00,VWS V14.01,2013-02-27 20:35:00,
2013-02-27 11:38:00,23.9,9.7,29.35,North,355,20.0,25.0,54,0.00,,---,0.00,VWS V14.01,2013-02-27 20:38:00,
2013-02-27 11:39:00,23.8,9.6,29.35,North,355,16.0,25.0,54,0.00,,---,0.00,VWS V14.01,2013-02-27 20:39:00,
2013-02-27 11:40:00,24.0,9.8,29.35,NNW,334,15.0,25.0,54,0.00,,---,0.00,VWS V14.01,2013-02-27 20:40:00,
2013-02-27 11:43:00,23.3,9.1,29.35,NNW,346,16.0,24.0,54,0.00,,---,0.00,VWS V14.01,2013-02-27 20:43:00,
2013-02-27 11:44:00,23.3,9.5,29.35,North,355,18.0,24.0,55,0.00,,---,0.00,VWS V14.01,2013-02-27 20:44:00,
2013-02-27 11:45:00,23.4,9.6,29.35,North,360,22.0,25.0,55,0.00,,---,0.00,VWS V14.01,2013-02-27 20:45:00,
2013-02-27 11:48:00,23.5,10.1,29.35,North,355,22.0,22.0,56,0.00,,---,0.00,VWS V14.01,2013-02-27 20:48:00,
2013-02-27 11:49:00,23.5,10.1,29.35,NNW,348,18.0,22.0,56,0.00,,---,0.00,VWS V14.01,2013-02-27 20:49:00,
2013-02-27 11:50:00,23.3,9.9,29.35,North,350,12.0,24.0,56,0.00,,---,0.00,VWS V14.01,2013-02-27 20:50:00,
2013-02-27 11:54:00,23.3,9.9,29.35,North,360,22.0,22.0,56,0.00,,---,0.00,VWS V14.01,2013-02-27 20:54:00,
2013-02-27 11:55:00,23.4,10.0,29.35,NNW,348,15.0,22.0,56,0.00,,---,0.00,VWS V14.01,2013-02-27 20:55:00,
2013-02-27 11:59:00,22.6,9.7,29.35,North,360,13.0,21.0,57,0.00,,---,0.00,VWS V14.01,2013-02-27 20:59:00,
2013-02-27 12:00:00,22.8,9.5,29.35,NNW,343,11.0,22.0,56,0.00,,---,0.00,VWS V14.01,2013-02-27 21:00:00,
2013-02-27 12:04:00,22.0,9.1,29.35,North,5,14.0,22.0,57,0.00,,---,0.00,VWS V14.01,2013-02-27 21:04:00,
2013-02-27 12:05:00,21.8,9.3,29.35,NNW,343,16.0,22.0,58,0.00,,---,0.00,VWS V14.01,2013-02-27 21:05:00,
2013-02-27 12:09:00,21.4,9.3,29.36,North,355,13.0,22.0,59,0.00,,---,0.00,VWS V14.01,2013-02-27 21:09:00,
2013-02-27 12:10:00,21.3,9.2,29.36,North,360,17.0,22.0,59,0.00,,---,0.00,VWS V14.01,2013-02-27 21:10:00,
2013-02-27 12:14:00,20.9,8.8,29.35,North,355,16.0,20.0,59,0.00,,---,0.00,VWS V14.01,2013-02-27 21:14:00,
2013-02-27 12:15:00,20.9,8.8,29.35,North,349,11.0,20.0,59,0.00,,---,0.00,VWS V14.01,2013-02-27 21:15:00,
2013-02-27 12:19:00,21.0,8.9,29.35,NNW,347,12.0,18.0,59,0.00,,---,0.00,VWS V14.01,2013-02-27 21:19:00,
2013-02-27 12:20:00,20.9,9.2,29.35,NNW,344,14.0,18.0,60,0.00,,---,0.00,VWS V14.01,2013-02-27 21:20:00,
2013-02-27 12:24:00,21.2,9.5,29.35,NNW,339,6.0,18.0,60,0.00,,---,0.00,VWS V14.01,2013-02-27 21:24:00,
2013-02-27 12:25:00,21.3,9.6,29.35,NNW,344,12.0,18.0,60,0.00,,---,0.00,VWS V14.01,2013-02-27 21:25:00,
2013-02-27 12:29:00,21.6,9.1,29.36,NNW,339,0.0,17.0,58,0.00,,---,0.00,VWS V14.01,2013-02-27 21:29:00,
2013-02-27 12:30:00,21.5,9.0,29.36,North,355,4.0,17.0,58,0.00,,---,0.00,VWS V14.01,2013-02-27 21:30:00,
2013-02-27 12:34:00,20.8,8.8,29.35,North,350,11.0,17.0,59,0.00,,---,0.00,VWS V14.01,2013-02-27 21:34:00,
2013-02-27 12:35:00,20.8,8.8,29.34,NW,323,12.0,17.0,59,0.00,,---,0.00,VWS V14.01,2013-02-27 21:35:00,
2013-02-27 12:40:00,21.1,9.8,29.34,North,355,13.0,16.0,61,0.00,,---,0.00,VWS V14.01,2013-02-27 21:40:00,
2013-02-27 12:41:00,21.3,10.0,29.34,North,360,13.0,16.0,61,0.00,,---,0.00,VWS V14.01,2013-02-27 21:41:00,
2013-02-27 12:45:00,23.0,10.4,29.34,North,5,19.0,20.0,58,0.00,,---,0.00,VWS V14.01,2013-02-27 21:45:00,
2013-02-27 12:50:00,23.5,10.5,29.34,North,5,16.0,18.0,57,0.00,,---,0.00,VWS V14.01,2013-02-27 21:50:00,
2013-02-27 12:51:00,23.6,10.6,29.34,North,360,13.0,18.0,57,0.00,,---,0.00,VWS V14.01,2013-02-27 21:51:00,
2013-02-27 12:55:00,24.0,10.6,29.34,NNW,336,9.0,16.0,56,0.00,,---,0.00,VWS V14.01,2013-02-27 21:55:00,
2013-02-27 12:56:00,24.1,10.7,29.33,NNE,14,13.0,16.0,56,0.00,,---,0.00,VWS V14.01,2013-02-27 21:56:00,
2013-02-27 13:00:00,24.3,10.5,29.33,North,351,14.0,18.0,55,0.00,,---,0.00,VWS V14.01,2013-02-27 22:00:00,
2013-02-27 13:01:00,24.3,10.5,29.33,North,351,14.0,18.0,55,0.00,,---,0.00,VWS V14.01,2013-02-27 22:01:00,
2013-02-27 13:05:00,24.3,10.5,29.34,NNW,335,13.0,18.0,55,0.00,,---,0.00,VWS V14.01,2013-02-27 22:05:00,
2013-02-27 13:06:00,24.4,10.6,29.34,NNW,348,10.0,16.0,55,0.00,,---,0.00,VWS V14.01,2013-02-27 22:06:00,
2013-02-27 13:10:00,24.4,10.6,29.34,North,5,8.0,16.0,55,0.00,,---,0.00,VWS V14.01,2013-02-27 22:10:00,
2013-02-27 13:11:00,24.5,10.7,29.34,NW,315,1.0,9.0,55,0.00,,---,0.00,VWS V14.01,2013-02-27 22:11:00,
2013-02-27 13:15:00,24.6,10.8,29.34,WNW,286,5.0,9.0,55,0.00,,---,0.00,VWS V14.01,2013-02-27 22:15:00,
2013-02-27 13:16:00,23.7,9.1,29.34,West,261,14.0,16.0,53,0.00,,---,0.00,VWS V14.01,2013-02-27 22:16:00,
2013-02-27 13:20:00,23.5,8.9,29.33,West,271,8.0,18.0,53,0.00,,---,0.00,VWS V14.01,2013-02-27 22:20:00,
2013-02-27 13:21:00,22.7,9.0,29.34,WNW,294,0.0,17.0,55,0.00,,---,0.00,VWS V14.01,2013-02-27 22:21:00,
2013-02-27 13:22:00,22.6,8.9,29.34,West,269,7.0,9.0,55,0.00,,---,0.00,VWS V14.01,2013-02-27 22:22:00,
2013-02-27 13:25:00,22.6,8.9,29.34,West,265,5.0,17.0,55,0.00,,---,0.00,VWS V14.01,2013-02-27 22:25:00,
2013-02-27 13:26:00,22.7,9.4,29.34,WSW,256,5.0,12.0,56,0.00,,---,0.00,VWS V14.01,2013-02-27 22:26:00,
2013-02-27 13:27:00,22.9,9.2,29.33,WNW,283,1.0,3.0,55,0.00,,---,0.00,VWS V14.01,2013-02-27 22:27:00,
2013-02-27 13:30:00,22.8,9.1,29.33,West,281,3.0,12.0,55,0.00,,---,0.00,VWS V14.01,2013-02-27 22:30:00,
2013-02-27 13:31:00,23.0,9.2,29.33,WSW,242,6.0,12.0,55,0.00,,---,0.00,VWS V14.01,2013-02-27 22:31:00,
2013-02-27 13:32:00,23.0,9.7,29.33,West,265,7.0,9.0,56,0.00,,---,0.00,VWS V14.01,2013-02-27 22:32:00,
2013-02-27 13:35:00,23.0,9.2,29.33,West,268,6.0,12.0,55,0.00,,---,0.00,VWS V14.01,2013-02-27 22:35:00,
2013-02-27 13:36:00,22.9,9.6,29.33,West,261,9.0,12.0,56,0.00,,---,0.00,VWS V14.01,2013-02-27 22:36:00,
2013-02-27 13:37:00,22.9,9.2,29.33,West,259,7.0,12.0,55,0.00,,---,0.00,VWS V14.01,2013-02-27 22:37:00,
2013-02-27 13:40:00,22.9,9.2,29.33,West,259,7.0,12.0,55,0.00,,---,0.00,VWS V14.01,2013-02-27 22:40:00,
2013-02-27 13:41:00,22.9,9.6,29.33,WSW,240,7.0,12.0,56,0.00,,---,0.00,VWS V14.01,2013-02-27 22:41:00,
2013-02-27 13:42:00,22.8,9.5,29.34,WSW,257,1.0,3.0,56,0.00,,---,0.00,VWS V14.01,2013-02-27 22:42:00,
2013-02-27 13:43:00,22.7,9.4,29.34,WSW,258,2.0,3.0,56,0.00,,---,0.00,VWS V14.01,2013-02-27 22:43:00,
2013-02-27 13:45:00,22.8,9.5,29.33,WSW,257,3.0,12.0,56,0.00,,---,0.00,VWS V14.01,2013-02-27 22:45:00,
2013-02-27 13:46:00,22.5,9.2,29.34,WSW,252,9.0,12.0,56,0.00,,---,0.00,VWS V14.01,2013-02-27 22:46:00,
2013-02-27 13:47:00,22.3,8.6,29.34,WSW,237,6.0,12.0,55,0.00,,---,0.00,VWS V14.01,2013-02-27 22:47:00,
2013-02-27 13:48:00,22.2,8.5,29.33,WSW,256,7.0,12.0,55,0.00,,---,0.00,VWS V14.01,2013-02-27 22:48:00,
2013-02-27 13:50:00,22.4,8.7,29.34,West,260,13.0,13.0,55,0.00,,---,0.00,VWS V14.01,2013-02-27 22:50:00,
2013-02-27 13:51:00,21.9,9.0,29.33,West,260,1.0,12.0,57,0.00,,---,0.00,VWS V14.01,2013-02-27 22:51:00,
2013-02-27 13:52:00,21.9,9.0,29.33,SW,217,4.0,4.0,57,0.00,,---,0.00,VWS V14.01,2013-02-27 22:52:00,
2013-02-27 13:53:00,22.0,9.1,29.33,West,266,8.0,11.0,57,0.00,,---,0.00,VWS V14.01,2013-02-27 22:53:00,
2013-02-27 13:55:00,22.0,9.1,29.33,SW,229,2.0,12.0,57,0.00,,---,0.00,VWS V14.01,2013-02-27 22:55:00,
2013-02-27 13:56:00,22.3,9.0,29.33,SW,215,0.0,13.0,56,0.00,,---,0.00,VWS V14.01,2013-02-27 22:56:00,
2013-02-27 13:57:00,22.4,9.1,29.33,WNW,286,1.0,7.0,56,0.00,,---,0.00,VWS V14.01,2013-02-27 22:57:00,
2013-02-27 13:58:00,22.5,9.6,29.33,West,273,3.0,7.0,57,0.00,,---,0.00,VWS V14.01,2013-02-27 22:58:00,
2013-02-27 14:00:00,22.4,9.1,29.33,SW,215,1.0,13.0,56,0.00,,---,0.00,VWS V14.01,2013-02-27 23:00:00,
2013-02-27 14:01:00,23.3,9.9,29.33,WSW,254,0.0,8.0,56,0.00,,---,0.00,VWS V14.01,2013-02-27 23:01:00,
2013-02-27 14:02:00,23.3,9.9,29.33,WSW,249,2.0,4.0,56,0.00,,---,0.00,VWS V14.01,2013-02-27 23:02:00,
2013-02-27 14:03:00,23.5,10.1,29.33,WSW,249,0.0,4.0,56,0.00,,---,0.00,VWS V14.01,2013-02-27 23:03:00,
2013-02-27 14:05:00,23.3,9.9,29.33,WSW,254,0.0,8.0,56,0.00,,---,0.00,VWS V14.01,2013-02-27 23:05:00,
2013-02-27 14:06:00,24.0,9.4,29.34,SSE,165,0.0,7.0,53,0.00,,---,0.00,VWS V14.01,2013-02-27 23:06:00,
2013-02-27 14:07:00,24.0,9.4,29.34,South,172,4.0,4.0,53,0.00,,---,0.00,VWS V14.01,2013-02-27 23:07:00,
2013-02-27 14:08:00,24.0,9.4,29.34,SSE,165,5.0,5.0,53,0.00,,---,0.00,VWS V14.01,2013-02-27 23:08:00,
2013-02-27 14:10:00,24.0,9.4,29.34,SSE,165,0.0,7.0,53,0.00,,---,0.00,VWS V14.01,2013-02-27 23:10:00,
2013-02-27 14:12:00,23.8,9.6,29.34,ESE,119,0.0,1.0,54,0.00,,---,0.00,VWS V14.01,2013-02-27 23:12:00,
2013-02-27 14:13:00,23.8,9.6,29.34,ESE,119,2.0,4.0,54,0.00,,---,0.00,VWS V14.01,2013-02-27 23:13:00,
2013-02-27 14:15:00,23.8,9.6,29.34,ESE,119,0.0,6.0,54,0.00,,---,0.00,VWS V14.01,2013-02-27 23:15:00,
2013-02-27 14:17:00,23.8,9.6,29.34,ESE,119,0.0,0.0,54,0.00,,---,0.00,VWS V14.01,2013-02-27 23:17:00,
2013-02-27 14:18:00,23.9,9.7,29.34,ESE,119,4.0,5.0,54,0.00,,---,0.00,VWS V14.01,2013-02-27 23:18:00,
2013-02-27 14:20:00,23.8,9.6,29.34,ESE,119,0.0,4.0,54,0.00,,---,0.00,VWS V14.01,2013-02-27 23:20:00,
2013-02-27 14:22:00,24.2,10.0,29.34,ESE,119,0.0,0.0,54,0.00,,---,0.00,VWS V14.01,2013-02-27 23:22:00,
2013-02-27 14:23:00,24.3,10.1,29.34,ESE,119,1.0,2.0,54,0.00,,---,0.00,VWS V14.01,2013-02-27 23:23:00,
2013-02-27 14:24:00,24.4,10.1,29.33,ESE,119,2.0,5.0,54,0.00,,---,0.00,VWS V14.01,2013-02-27 23:24:00,
2013-02-27 14:25:00,24.1,9.9,29.34,ESE,119,0.0,5.0,54,0.00,,---,0.00,VWS V14.01,2013-02-27 23:25:00,
2013-02-27 14:27:00,24.7,10.0,29.33,ESE,119,2.0,4.0,53,0.00,,---,0.00,VWS V14.01,2013-02-27 23:27:00,
2013-02-27 14:28:00,24.8,10.1,29.33,ESE,119,5.0,5.0,53,0.00,,---,0.00,VWS V14.01,2013-02-27 23:28:00,
2013-02-27 14:29:00,24.9,10.2,29.33,SE,129,4.0,7.0,53,0.00,,---,0.00,VWS V14.01,2013-02-27 23:29:00,
2013-02-27 14:30:00,24.6,9.9,29.33,ESE,119,0.0,5.0,53,0.00,,---,0.00,VWS V14.01,2013-02-27 23:30:00,
2013-02-27 14:32:00,24.9,10.2,29.33,SE,126,6.0,7.0,53,0.00,,---,0.00,VWS V14.01,2013-02-27 23:32:00,
2013-02-27 14:33:00,24.9,10.2,29.33,ESE,111,5.0,7.0,53,0.00,,---,0.00,VWS V14.01,2013-02-27 23:33:00,
2013-02-27 14:34:00,24.7,10.0,29.33,ESE,112,5.0,7.0,53,0.00,,---,0.00,VWS V14.01,2013-02-27 23:34:00,
2013-02-27 14:35:00,24.9,10.2,29.33,SE,129,7.0,7.0,53,0.00,,---,0.00,VWS V14.01,2013-02-27 23:35:00,
2013-02-27 14:37:00,24.6,9.9,29.33,SE,124,5.0,6.0,53,0.00,,---,0.00,VWS V14.01,2013-02-27 23:37:00,
2013-02-27 14:38:00,24.7,10.4,29.33,SE,125,5.0,6.0,54,0.00,,---,0.00,VWS V14.01,2013-02-27 23:38:00,
2013-02-27 14:39:00,24.7,10.4,29.33,SE,127,2.0,7.0,54,0.00,,---,0.00,VWS V14.01,2013-02-27 23:39:00,
2013-02-27 14:40:00,24.6,10.3,29.33,ESE,116,2.0,7.0,54,0.00,,---,0.00,VWS V14.01,2013-02-27 23:40:00,
2013-02-27 14:42:00,24.7,10.9,29.33,ESE,115,5.0,8.0,55,0.00,,---,0.00,VWS V14.01,2013-02-27 23:42:00,
2013-02-27 14:43:00,24.7,10.9,29.33,ESE,116,6.0,8.0,55,0.00,,---,0.00,VWS V14.01,2013-02-27 23:43:00,
2013-02-27 14:44:00,24.1,9.9,29.33,ESE,120,5.0,8.0,54,0.00,,---,0.00,VWS V14.01,2013-02-27 23:44:00,
2013-02-27 14:45:00,24.9,10.6,29.33,ESE,121,7.0,8.0,54,0.00,,---,0.00,VWS V14.01,2013-02-27 23:45:00,
2013-02-27 14:48:00,23.4,10.0,29.33,SE,136,5.0,5.0,56,0.00,,---,0.00,VWS V14.01,2013-02-27 23:48:00,
2013-02-27 14:49:00,23.3,10.3,29.33,ESE,123,2.0,7.0,57,0.00,,---,0.00,VWS V14.01,2013-02-27 23:49:00,
2013-02-27 14:50:00,23.6,10.2,29.33,SE,136,4.0,8.0,56,0.00,,---,0.00,VWS V14.01,2013-02-27 23:50:00,
2013-02-27 14:53:00,22.9,10.0,29.33,SE,128,2.0,8.0,57,0.00,,---,0.00,VWS V14.01,2013-02-27 23:53:00,
2013-02-27 14:54:00,22.7,9.8,29.33,SE,128,4.0,8.0,57,0.00,,---,0.00,VWS V14.01,2013-02-27 23:54:00,
2013-02-27 14:55:00,22.5,9.6,29.33,SE,128,6.0,8.0,57,0.00,,---,0.00,VWS V14.01,2013-02-27 23:55:00,
2013-02-27 14:58:00,21.8,9.3,29.33,SE,124,4.0,6.0,58,0.00,,---,0.00,VWS V14.01,2013-02-27 23:58:00,
2013-02-27 14:59:00,21.6,9.5,29.33,SE,124,2.0,7.0,59,0.00,,---,0.00,VWS V14.01,2013-02-27 23:59:00,
2013-02-27 15:00:00,21.5,9.4,29.33,SE,124,4.0,7.0,59,0.00,,---,0.00,VWS V14.01,2013-02-28 00:00:00,
2013-02-27 15:03:00,21.3,9.6,29.33,SE,124,2.0,5.0,60,0.00,,---,0.00,VWS V14.01,2013-02-28 00:03:00,
2013-02-27 15:04:00,21.3,10.0,29.33,SE,124,0.0,6.0,61,0.00,,---,0.00,VWS V14.01,2013-02-28 00:04:00,
2013-02-27 15:05:00,21.3,10.0,29.33,SE,124,2.0,6.0,61,0.00,,---,0.00,VWS V14.01,2013-02-28 00:05:00,
2013-02-27 15:08:00,21.3,10.0,29.33,SE,124,4.0,5.0,61,0.00,,---,0.00,VWS V14.01,2013-02-28 00:08:00,
2013-02-27 15:09:00,21.2,9.9,29.33,SE,124,4.0,5.0,61,0.00,,---,0.00,VWS V14.01,2013-02-28 00:09:00,
2013-02-27 15:10:00,21.2,9.9,29.33,SE,124,2.0,5.0,61,0.00,,---,0.00,VWS V14.01,2013-02-28 00:10:00,
2013-02-27 15:14:00,21.2,10.2,29.33,SE,124,0.0,4.0,62,0.00,,---,0.00,VWS V14.01,2013-02-28 00:14:00,
2013-02-27 15:15:00,21.2,9.9,29.33,SE,124,1.0,4.0,61,0.00,,---,0.00,VWS V14.01,2013-02-28 00:15:00,
2013-02-27 15:19:00,21.4,10.1,29.33,SE,124,1.0,6.0,61,0.00,,---,0.00,VWS V14.01,2013-02-28 00:19:00,
2013-02-27 15:20:00,21.5,10.1,29.33,SE,124,2.0,6.0,61,0.00,,---,0.00,VWS V14.01,2013-02-28 00:20:00,
2013-02-27 15:24:00,21.6,10.2,29.33,SE,124,2.0,4.0,61,0.00,,---,0.00,VWS V14.01,2013-02-28 00:24:00,
2013-02-27 15:25:00,21.6,10.2,29.33,SE,124,2.0,4.0,61,0.00,,---,0.00,VWS V14.01,2013-02-28 00:25:00,
2013-02-27 15:26:00,21.6,10.2,29.33,SE,124,4.0,4.0,61,0.00,,---,0.00,VWS V14.01,2013-02-28 00:26:00,
2013-02-27 15:30:00,21.6,10.6,29.33,SE,124,4.0,6.0,62,0.00,,---,0.00,VWS V14.01,2013-02-28 00:30:00,
2013-02-27 15:31:00,21.7,10.7,29.33,SE,124,2.0,6.0,62,0.00,,---,0.00,VWS V14.01,2013-02-28 00:31:00,
2013-02-27 15:34:00,22.0,10.6,29.33,SE,124,0.0,5.0,61,0.00,,---,0.00,VWS V14.01,2013-02-28 00:34:00,
2013-02-27 15:35:00,22.1,10.7,29.33,SE,124,2.0,5.0,61,0.00,,---,0.00,VWS V14.01,2013-02-28 00:35:00,
2013-02-27 15:36:00,22.1,10.7,29.33,SE,124,1.0,5.0,61,0.00,,---,0.00,VWS V14.01,2013-02-28 00:36:00,
2013-02-27 15:40:00,22.6,10.8,29.33,SE,124,0.0,5.0,60,0.00,,---,0.00,VWS V14.01,2013-02-28 00:40:00,
2013-02-27 15:41:00,22.7,10.5,29.33,SE,124,0.0,5.0,59,0.00,,---,0.00,VWS V14.01,2013-02-28 00:41:00,
2013-02-27 15:45:00,23.1,10.9,29.32,SE,124,0.0,2.0,59,0.00,,---,0.00,VWS V14.01,2013-02-28 00:45:00,
2013-02-27 15:46:00,23.1,10.5,29.32,SE,124,0.0,2.0,58,0.00,,---,0.00,VWS V14.01,2013-02-28 00:46:00,
2013-02-27 15:50:00,23.2,10.6,29.33,SE,124,4.0,4.0,58,0.00,,---,0.00,VWS V14.01,2013-02-28 00:50:00,
2013-02-27 15:51:00,23.2,10.6,29.33,SE,124,4.0,5.0,58,0.00,,---,0.00,VWS V14.01,2013-02-28 00:51:00,
2013-02-27 15:55:00,22.9,10.7,29.33,SE,124,2.0,5.0,59,0.00,,---,0.00,VWS V14.01,2013-02-28 00:55:00,
2013-02-27 15:56:00,22.8,10.6,29.33,SE,124,6.0,6.0,59,0.00,,---,0.00,VWS V14.01,2013-02-28 00:56:00,
2013-02-27 16:00:00,22.7,10.5,29.33,SE,124,4.0,5.0,59,0.00,,---,0.00,VWS V14.01,2013-02-28 01:00:00,
2013-02-27 16:01:00,22.7,10.5,29.33,SE,124,4.0,5.0,59,0.00,,---,0.00,VWS V14.01,2013-02-28 01:01:00,
2013-02-27 16:02:00,22.7,10.2,29.33,SE,124,1.0,1.0,58,0.00,,---,0.00,VWS V14.01,2013-02-28 01:02:00,
2013-02-27 16:05:00,22.7,10.2,29.33,SE,124,0.0,5.0,58,0.00,,---,0.00,VWS V14.01,2013-02-28 01:05:00,
2013-02-27 16:06:00,22.9,10.7,29.33,SE,124,0.0,5.0,59,0.00,,---,0.00,VWS V14.01,2013-02-28 01:06:00,
2013-02-27 16:07:00,22.9,10.7,29.33,SE,124,4.0,5.0,59,0.00,,---,0.00,VWS V14.01,2013-02-28 01:07:00,
2013-02-27 16:10:00,22.9,10.7,29.33,SE,124,5.0,5.0,59,0.00,,---,0.00,VWS V14.01,2013-02-28 01:10:00,
2013-02-27 16:11:00,23.2,10.6,29.33,SE,128,4.0,6.0,58,0.00,,---,0.00,VWS V14.01,2013-02-28 01:11:00,
2013-02-27 16:12:00,23.3,10.3,29.33,SE,127,0.0,2.0,57,0.00,,---,0.00,VWS V14.01,2013-02-28 01:12:00,
2013-02-27 16:15:00,23.2,10.2,29.33,SE,127,2.0,6.0,57,0.00,,---,0.00,VWS V14.01,2013-02-28 01:15:00,
2013-02-27 16:16:00,23.4,10.0,29.32,SE,128,2.0,6.0,56,0.00,,---,0.00,VWS V14.01,2013-02-28 01:16:00,
2013-02-27 16:17:00,23.4,10.4,29.32,SE,129,4.0,5.0,57,0.00,,---,0.00,VWS V14.01,2013-02-28 01:17:00,
2013-02-27 16:20:00,23.4,10.0,29.32,SE,128,5.0,6.0,56,0.00,,---,0.00,VWS V14.01,2013-02-28 01:20:00,
2013-02-27 16:21:00,23.2,9.8,29.33,ENE,78,4.0,7.0,56,0.00,,---,0.00,VWS V14.01,2013-02-28 01:21:00,
2013-02-27 16:22:00,23.0,10.1,29.32,ENE,71,3.0,4.0,57,0.00,,---,0.00,VWS V14.01,2013-02-28 01:22:00,
2013-02-27 16:25:00,23.1,9.8,29.32,ENE,71,4.0,7.0,56,0.00,,---,0.00,VWS V14.01,2013-02-28 01:25:00,
2013-02-27 16:26:00,22.5,10.0,29.32,ENE,71,3.0,4.0,58,0.00,,---,0.00,VWS V14.01,2013-02-28 01:26:00,
2013-02-27 16:27:00,22.5,9.6,29.33,ENE,71,2.0,2.0,57,0.00,,---,0.00,VWS V14.01,2013-02-28 01:27:00,
2013-02-27 16:30:00,22.5,10.0,29.32,ENE,71,2.0,4.0,58,0.00,,---,0.00,VWS V14.01,2013-02-28 01:30:00,
2013-02-27 16:31:00,22.6,9.7,29.32,ENE,71,0.0,3.0,57,0.00,,---,0.00,VWS V14.01,2013-02-28 01:31:00,
2013-02-27 16:32:00,22.6,9.7,29.32,ENE,71,1.0,3.0,57,0.00,,---,0.00,VWS V14.01,2013-02-28 01:32:00,
2013-02-27 16:35:00,22.6,9.7,29.32,ENE,71,3.0,3.0,57,0.00,,---,0.00,VWS V14.01,2013-02-28 01:35:00,
2013-02-27 16:37:00,22.9,10.3,29.32,SE,144,2.0,2.0,58,0.00,,---,0.00,VWS V14.01,2013-02-28 01:37:00,
2013-02-27 16:38:00,22.9,10.3,29.32,SE,144,1.0,5.0,58,0.00,,---,0.00,VWS V14.01,2013-02-28 01:38:00,
2013-02-27 16:40:00,22.9,10.3,29.32,SE,144,1.0,6.0,58,0.00,,---,0.00,VWS V14.01,2013-02-28 01:40:00,
2013-02-27 16:42:00,23.0,10.4,29.32,SE,144,2.0,2.0,58,0.00,,---,0.00,VWS V14.01,2013-02-28 01:42:00,
2013-02-27 16:43:00,23.0,10.4,29.32,SE,144,0.0,5.0,58,0.00,,---,0.00,VWS V14.01,2013-02-28 01:43:00,
2013-02-27 16:45:00,23.0,10.4,29.32,SE,144,1.0,6.0,58,0.00,,---,0.00,VWS V14.01,2013-02-28 01:45:00,
2013-02-27 16:47:00,23.1,10.1,29.32,SE,144,4.0,4.0,57,0.00,,---,0.00,VWS V14.01,2013-02-28 01:47:00,
2013-02-27 16:48:00,23.1,10.1,29.32,SE,144,2.0,4.0,57,0.00,,---,0.00,VWS V14.01,2013-02-28 01:48:00,
2013-02-27 16:50:00,23.1,10.1,29.32,SE,144,2.0,5.0,57,0.00,,---,0.00,VWS V14.01,2013-02-28 01:50:00,
2013-02-27 16:52:00,23.2,9.8,29.32,SE,144,0.0,2.0,56,0.00,,---,0.00,VWS V14.01,2013-02-28 01:52:00,
2013-02-27 16:53:00,23.2,9.8,29.32,SE,144,0.0,2.0,56,0.00,,---,0.00,VWS V14.01,2013-02-28 01:53:00,
2013-02-27 16:54:00,23.3,9.9,29.32,SE,144,4.0,5.0,56,0.00,,---,0.00,VWS V14.01,2013-02-28 01:54:00,
2013-02-27 16:55:00,23.2,9.8,29.32,SE,144,2.0,6.0,56,0.00,,---,0.00,VWS V14.01,2013-02-28 01:55:00,
2013-02-27 16:57:00,23.3,9.9,29.32,SE,144,0.0,1.0,56,0.00,,---,0.00,VWS V14.01,2013-02-28 01:57:00,
2013-02-27 16:58:00,23.4,10.0,29.32,SE,144,1.0,4.0,56,0.00,,---,0.00,VWS V14.01,2013-02-28 01:58:00,
2013-02-27 16:59:00,23.4,10.0,29.32,SE,144,0.0,4.0,56,0.00,,---,0.00,VWS V14.01,2013-02-28 01:59:00,
2013-02-27 17:00:00,23.3,9.9,29.32,SE,144,1.0,5.0,56,0.00,,---,0.00,VWS V14.01,2013-02-28 02:00:00,
2013-02-27 17:02:00,23.4,10.0,29.32,SE,144,4.0,5.0,56,0.00,,---,0.00,VWS V14.01,2013-02-28 02:02:00,
2013-02-27 17:03:00,23.3,9.9,29.32,SE,144,1.0,5.0,56,0.00,,---,0.00,VWS V14.01,2013-02-28 02:03:00,
2013-02-27 17:04:00,23.2,9.8,29.32,SE,144,2.0,5.0,56,0.00,,---,0.00,VWS V14.01,2013-02-28 02:04:00,
2013-02-27 17:05:00,23.4,10.0,29.32,SE,144,2.0,5.0,56,0.00,,---,0.00,VWS V14.01,2013-02-28 02:05:00,
2013-02-27 17:07:00,23.0,9.7,29.32,SE,144,1.0,2.0,56,0.00,,---,0.00,VWS V14.01,2013-02-28 02:07:00,
2013-02-27 17:08:00,22.8,9.9,29.32,SE,144,2.0,4.0,57,0.00,,---,0.00,VWS V14.01,2013-02-28 02:08:00,
2013-02-27 17:09:00,22.8,9.9,29.32,SE,144,1.0,4.0,57,0.00,,---,0.00,VWS V14.01,2013-02-28 02:09:00,
2013-02-27 17:10:00,23.1,9.8,29.32,SE,144,1.0,5.0,56,0.00,,---,0.00,VWS V14.01,2013-02-28 02:10:00,
2013-02-27 17:12:00,21.3,7.7,29.32,SSW,194,3.0,4.0,55,0.00,,---,0.00,VWS V14.01,2013-02-28 02:12:00,
2013-02-27 17:13:00,21.2,7.6,29.32,South,180,1.0,4.0,55,0.00,,---,0.00,VWS V14.01,2013-02-28 02:13:00,
2013-02-27 17:14:00,21.2,7.6,29.32,South,179,2.0,4.0,55,0.00,,---,0.00,VWS V14.01,2013-02-28 02:14:00,
2013-02-27 17:15:00,21.2,7.6,29.32,South,181,3.0,5.0,55,0.00,,---,0.00,VWS V14.01,2013-02-28 02:15:00,
2013-02-27 17:18:00,21.0,7.8,29.32,South,178,2.0,4.0,56,0.00,,---,0.00,VWS V14.01,2013-02-28 02:18:00,
2013-02-27 17:19:00,21.0,7.8,29.32,South,178,1.0,4.0,56,0.00,,---,0.00,VWS V14.01,2013-02-28 02:19:00,
2013-02-27 17:20:00,21.0,7.8,29.32,South,170,1.0,4.0,56,0.00,,---,0.00,VWS V14.01,2013-02-28 02:20:00,
2013-02-27 17:23:00,21.1,7.5,29.32,SSE,165,4.0,4.0,55,0.00,,---,0.00,VWS V14.01,2013-02-28 02:23:00,
2013-02-27 17:24:00,21.1,7.5,29.32,South,169,4.0,4.0,55,0.00,,---,0.00,VWS V14.01,2013-02-28 02:24:00,
2013-02-27 17:25:00,21.0,7.4,29.32,South,169,2.0,4.0,55,0.00,,---,0.00,VWS V14.01,2013-02-28 02:25:00,
2013-02-27 17:28:00,20.9,7.3,29.32,SSE,165,2.0,4.0,55,0.00,,---,0.00,VWS V14.01,2013-02-28 02:28:00,
2013-02-27 17:29:00,20.9,7.3,29.32,SSE,151,2.0,5.0,55,0.00,,---,0.00,VWS V14.01,2013-02-28 02:29:00,
2013-02-27 17:30:00,20.9,7.3,29.32,SSE,151,2.0,5.0,55,0.00,,---,0.00,VWS V14.01,2013-02-28 02:30:00,
2013-02-27 17:33:00,20.7,7.5,29.32,SSE,159,2.0,4.0,56,0.00,,---,0.00,VWS V14.01,2013-02-28 02:33:00,
2013-02-27 17:34:00,20.6,7.4,29.32,SSE,159,1.0,4.0,56,0.00,,---,0.00,VWS V14.01,2013-02-28 02:34:00,
2013-02-27 17:35:00,20.6,7.4,29.32,SSE,159,2.0,4.0,56,0.00,,---,0.00,VWS V14.01,2013-02-28 02:35:00,
2013-02-27 17:38:00,20.4,7.6,29.32,SSE,157,2.0,2.0,57,0.00,,---,0.00,VWS V14.01,2013-02-28 02:38:00,
2013-02-27 17:40:00,20.3,7.5,29.32,ESE,116,1.0,2.0,57,0.00,,---,0.00,VWS V14.01,2013-02-28 02:40:00,
2013-02-27 17:44:00,20.0,7.6,29.32,ESE,117,1.0,2.0,58,0.00,,---,0.00,VWS V14.01,2013-02-28 02:44:00,
2013-02-27 17:45:00,19.9,7.5,29.32,ESE,117,2.0,4.0,58,0.00,,---,0.00,VWS V14.01,2013-02-28 02:45:00,
2013-02-27 17:46:00,19.9,7.5,29.32,ESE,117,2.0,4.0,58,0.00,,---,0.00,VWS V14.01,2013-02-28 02:46:00,
2013-02-27 17:49:00,19.5,7.1,29.32,ESE,121,2.0,4.0,58,0.00,,---,0.00,VWS V14.01,2013-02-28 02:49:00,
2013-02-27 17:50:00,19.5,7.1,29.31,SE,124,0.0,4.0,58,0.00,,---,0.00,VWS V14.01,2013-02-28 02:50:00,
2013-02-27 17:51:00,19.5,7.1,29.31,SE,135,4.0,4.0,58,0.00,,---,0.00,VWS V14.01,2013-02-28 02:51:00,
2013-02-27 17:54:00,19.3,7.3,29.31,SE,138,1.0,2.0,59,0.00,,---,0.00,VWS V14.01,2013-02-28 02:54:00,
2013-02-27 17:55:00,19.3,7.3,29.31,SE,138,2.0,2.0,59,0.00,,---,0.00,VWS V14.01,2013-02-28 02:55:00,
2013-02-27 17:56:00,19.3,7.3,29.31,SE,138,1.0,2.0,59,0.00,,---,0.00,VWS V14.01,2013-02-28 02:56:00,
2013-02-27 17:59:00,19.3,7.3,29.31,SE,138,2.0,2.0,59,0.00,,---,0.00,VWS V14.01,2013-02-28 02:59:00,
2013-02-27 18:00:00,19.4,7.4,29.31,SE,138,2.0,2.0,59,0.00,,---,0.00,VWS V14.01,2013-02-28 03:00:00,
2013-02-27 18:01:00,19.2,7.2,29.31,SE,138,1.0,2.0,59,0.00,,---,0.00,VWS V14.01,2013-02-28 03:01:00,
2013-02-27 18:05:00,18.9,6.9,29.31,SE,144,2.0,4.0,59,0.00,,---,0.00,VWS V14.01,2013-02-28 03:05:00,
2013-02-27 18:06:00,18.9,6.9,29.31,SE,146,1.0,4.0,59,0.00,,---,0.00,VWS V14.01,2013-02-28 03:06:00,
2013-02-27 18:10:00,18.9,6.9,29.31,SE,146,2.0,5.0,59,0.00,,---,0.00,VWS V14.01,2013-02-28 03:10:00,
2013-02-27 18:11:00,18.6,6.7,29.31,SSE,165,1.0,4.0,59,0.00,,---,0.00,VWS V14.01,2013-02-28 03:11:00,
2013-02-27 18:15:00,18.6,7.0,29.31,SSE,155,1.0,4.0,60,0.00,,---,0.00,VWS V14.01,2013-02-28 03:15:00,
2013-02-27 18:16:00,18.4,6.8,29.31,SSE,155,2.0,4.0,60,0.00,,---,0.00,VWS V14.01,2013-02-28 03:16:00,
2013-02-27 18:20:00,18.3,6.8,29.31,SSE,155,1.0,4.0,60,0.00,,---,0.00,VWS V14.01,2013-02-28 03:20:00,
2013-02-27 18:21:00,18.1,6.6,29.31,SSE,155,1.0,2.0,60,0.00,,---,0.00,VWS V14.01,2013-02-28 03:21:00,
2013-02-27 18:26:00,17.9,6.4,29.31,SSE,152,0.0,2.0,60,0.00,,---,0.00,VWS V14.01,2013-02-28 03:26:00,
2013-02-27 18:30:00,18.0,6.5,29.31,SSE,152,1.0,2.0,60,0.00,,---,0.00,VWS V14.01,2013-02-28 03:30:00,
2013-02-27 18:31:00,17.4,6.3,29.31,ESE,117,2.0,4.0,61,0.00,,---,0.00,VWS V14.01,2013-02-28 03:31:00,
2013-02-27 18:32:00,17.3,6.2,29.31,ESE,117,1.0,1.0,61,0.00,,---,0.00,VWS V14.01,2013-02-28 03:32:00,
2013-02-27 18:35:00,17.4,6.3,29.31,ESE,117,0.0,4.0,61,0.00,,---,0.00,VWS V14.01,2013-02-28 03:35:00,
2013-02-27 18:37:00,16.6,6.2,29.31,SE,138,2.0,4.0,63,0.00,,---,0.00,VWS V14.01,2013-02-28 03:37:00,
2013-02-27 18:40:00,16.6,6.2,29.31,SE,138,2.0,4.0,63,0.00,,---,0.00,VWS V14.01,2013-02-28 03:40:00,
2013-02-27 18:42:00,16.0,6.0,29.31,SSE,147,1.0,2.0,64,0.00,,---,0.00,VWS V14.01,2013-02-28 03:42:00,
2013-02-27 18:45:00,16.0,6.0,29.31,SSE,147,1.0,4.0,64,0.00,,---,0.00,VWS V14.01,2013-02-28 03:45:00,
2013-02-27 18:47:00,15.5,6.2,29.32,SSE,148,2.0,2.0,66,0.00,,---,0.00,VWS V14.01,2013-02-28 03:47:00,
2013-02-27 18:50:00,15.5,6.2,29.32,SSE,147,0.0,2.0,66,0.00,,---,0.00,VWS V14.01,2013-02-28 03:50:00,
2013-02-27 18:52:00,14.9,5.6,29.32,SSE,148,0.0,0.0,66,0.00,,---,0.00,VWS V14.01,2013-02-28 03:52:00,
2013-02-27 18:55:00,15.0,5.7,29.32,SSE,148,0.0,2.0,66,0.00,,---,0.00,VWS V14.01,2013-02-28 03:55:00,
2013-02-27 18:57:00,14.5,5.6,29.32,SSE,148,1.0,1.0,67,0.00,,---,0.00,VWS V14.01,2013-02-28 03:57:00,
2013-02-27 18:58:00,14.5,5.6,29.32,SSE,148,1.0,1.0,67,0.00,,---,0.00,VWS V14.01,2013-02-28 03:58:00,
2013-02-27 19:00:00,14.6,5.7,29.32,SSE,148,0.0,2.0,67,0.00,,---,0.00,VWS V14.01,2013-02-28 04:00:00,
2013-02-27 19:02:00,13.8,4.6,29.32,SSE,148,1.0,2.0,66,0.00,,---,0.00,VWS V14.01,2013-02-28 04:02:00,
2013-02-27 19:03:00,13.7,4.5,29.32,SSE,148,1.0,2.0,66,0.00,,---,0.00,VWS V14.01,2013-02-28 04:03:00,
2013-02-27 19:05:00,13.9,4.7,29.32,SSE,148,1.0,2.0,66,0.00,,---,0.00,VWS V14.01,2013-02-28 04:05:00,
2013-02-27 19:07:00,13.2,4.3,29.32,SSE,148,0.0,0.0,67,0.00,,---,0.00,VWS V14.01,2013-02-28 04:07:00,
2013-02-27 19:08:00,13.2,4.3,29.32,SSE,148,0.0,0.0,67,0.00,,---,0.00,VWS V14.01,2013-02-28 04:08:00,
2013-02-27 19:10:00,13.3,4.4,29.32,SSE,148,0.0,2.0,67,0.00,,---,0.00,VWS V14.01,2013-02-28 04:10:00,
2013-02-27 19:13:00,12.6,4.1,29.32,SSE,148,2.0,2.0,68,0.00,,---,0.00,VWS V14.01,2013-02-28 04:13:00,
2013-02-27 19:15:00,12.7,3.8,29.32,SSE,148,2.0,2.0,67,0.00,,---,0.00,VWS V14.01,2013-02-28 04:15:00,
2013-02-27 19:18:00,12.1,3.9,29.32,SSE,148,0.0,0.0,69,0.00,,---,0.00,VWS V14.01,2013-02-28 04:18:00,
2013-02-27 19:20:00,12.2,4.0,29.32,SSE,148,0.0,2.0,69,0.00,,---,0.00,VWS V14.01,2013-02-28 04:20:00,
2013-02-27 19:23:00,11.7,3.8,29.32,SSE,148,1.0,2.0,70,0.00,,---,0.00,VWS V14.01,2013-02-28 04:23:00,
2013-02-27 19:25:00,11.9,4.0,29.32,SSE,148,1.0,1.0,70,0.00,,---,0.00,VWS V14.01,2013-02-28 04:25:00,
2013-02-27 19:28:00,11.3,3.7,29.32,SSE,148,0.0,0.0,71,0.00,,---,0.00,VWS V14.01,2013-02-28 04:28:00,
2013-02-27 19:29:00,11.3,3.7,29.32,SSE,148,0.0,0.0,71,0.00,,---,0.00,VWS V14.01,2013-02-28 04:29:00,
2013-02-27 19:30:00,11.5,3.9,29.32,SSE,148,0.0,2.0,71,0.00,,---,0.00,VWS V14.01,2013-02-28 04:30:00,
2013-02-27 19:33:00,11.0,3.8,29.32,East,88,1.0,2.0,72,0.00,,---,0.00,VWS V14.01,2013-02-28 04:33:00,
2013-02-27 19:34:00,11.0,3.8,29.32,East,88,1.0,2.0,72,0.00,,---,0.00,VWS V14.01,2013-02-28 04:34:00,
2013-02-27 19:35:00,11.2,4.0,29.32,SSE,148,0.0,0.0,72,0.00,,---,0.00,VWS V14.01,2013-02-28 04:35:00,
2013-02-27 19:39:00,10.8,3.9,29.32,NE,34,1.0,2.0,73,0.00,,---,0.00,VWS V14.01,2013-02-28 04:39:00,
2013-02-27 19:40:00,10.8,3.6,29.32,East,84,1.0,2.0,72,0.00,,---,0.00,VWS V14.01,2013-02-28 04:40:00,
2013-02-27 19:44:00,10.8,3.9,29.32,NNW,339,1.0,2.0,73,0.00,,---,0.00,VWS V14.01,2013-02-28 04:44:00,
2013-02-27 19:45:00,10.8,3.9,29.32,NNW,339,1.0,3.0,73,0.00,,---,0.00,VWS V14.01,2013-02-28 04:45:00,
2013-02-27 19:49:00,10.6,3.4,29.32,NNW,335,2.0,2.0,72,0.00,,---,0.00,VWS V14.01,2013-02-28 04:49:00,
2013-02-27 19:50:00,10.7,3.8,29.32,NNW,339,1.0,2.0,73,0.00,,---,0.00,VWS V14.01,2013-02-28 04:50:00,
2013-02-27 19:54:00,10.2,3.3,29.32,NNW,335,0.0,1.0,73,0.00,,---,0.00,VWS V14.01,2013-02-28 04:54:00,
2013-02-27 19:55:00,10.4,3.2,29.32,NNW,335,1.0,2.0,72,0.00,,---,0.00,VWS V14.01,2013-02-28 04:55:00,
2013-02-27 19:59:00,10.0,3.1,29.32,NNW,335,1.0,1.0,73,0.00,,---,0.00,VWS V14.01,2013-02-28 04:59:00,
2013-02-27 20:00:00,9.9,3.0,29.32,NNW,335,1.0,1.0,73,0.00,,---,0.00,VWS V14.01,2013-02-28 05:00:00,
2013-02-27 20:05:00,9.5,2.6,29.32,WNW,302,1.0,2.0,73,0.00,,---,0.00,VWS V14.01,2013-02-28 05:05:00,
2013-02-27 20:10:00,9.1,2.2,29.32,WNW,302,0.0,2.0,73,0.00,,---,0.00,VWS V14.01,2013-02-28 05:10:00,
2013-02-27 20:11:00,9.0,2.1,29.32,WNW,302,1.0,2.0,73,0.00,,---,0.00,VWS V14.01,2013-02-28 05:11:00,
2013-02-27 20:15:00,8.6,2.0,29.32,WNW,302,1.0,2.0,74,0.00,,---,0.00,VWS V14.01,2013-02-28 05:15:00,
2013-02-27 20:16:00,8.5,1.9,29.32,WNW,302,1.0,2.0,74,0.00,,---,0.00,VWS V14.01,2013-02-28 05:16:00,
2013-02-27 20:20:00,8.5,2.2,29.32,NW,309,1.0,2.0,75,0.00,,---,0.00,VWS V14.01,2013-02-28 05:20:00,
2013-02-27 20:21:00,8.4,2.1,29.32,NW,309,1.0,2.0,75,0.00,,---,0.00,VWS V14.01,2013-02-28 05:21:00,
2013-02-27 20:25:00,8.4,2.1,29.33,NNW,327,3.0,3.0,75,0.00,,---,0.00,VWS V14.01,2013-02-28 05:25:00,
2013-02-27 20:26:00,8.4,2.1,29.32,NNW,327,1.0,3.0,75,0.00,,---,0.00,VWS V14.01,2013-02-28 05:26:00,
2013-02-27 20:27:00,8.4,2.4,29.32,NNW,328,1.0,3.0,76,0.00,,---,0.00,VWS V14.01,2013-02-28 05:27:00,
2013-02-27 20:30:00,8.7,2.4,29.32,NNW,340,2.0,3.0,75,0.00,,---,0.00,VWS V14.01,2013-02-28 05:30:00,
2013-02-27 20:31:00,8.6,2.3,29.32,NNW,340,2.0,3.0,75,0.00,,---,0.00,VWS V14.01,2013-02-28 05:31:00,
2013-02-27 20:32:00,8.7,2.4,29.32,NNW,338,2.0,2.0,75,0.00,,---,0.00,VWS V14.01,2013-02-28 05:32:00,
2013-02-27 20:35:00,11.3,4.6,29.32,ENE,76,2.0,3.0,74,0.00,,---,0.00,VWS V14.01,2013-02-28 05:35:00,
2013-02-27 20:36:00,11.2,4.5,29.32,ENE,76,2.0,3.0,74,0.00,,---,0.00,VWS V14.01,2013-02-28 05:36:00,
2013-02-27 20:37:00,11.2,4.5,29.32,ENE,76,0.0,3.0,74,0.00,,---,0.00,VWS V14.01,2013-02-28 05:37:00,
2013-02-27 20:40:00,11.2,4.5,29.32,ENE,76,3.0,3.0,74,0.00,,---,0.00,VWS V14.01,2013-02-28 05:40:00,
2013-02-27 20:41:00,11.0,4.3,29.32,ENE,76,2.0,4.0,74,0.00,,---,0.00,VWS V14.01,2013-02-28 05:41:00,
2013-02-27 20:42:00,11.0,4.3,29.32,ENE,76,2.0,4.0,74,0.00,,---,0.00,VWS V14.01,2013-02-28 05:42:00,
2013-02-27 20:45:00,11.0,4.3,29.32,ENE,76,4.0,4.0,74,0.00,,---,0.00,VWS V14.01,2013-02-28 05:45:00,
2013-02-27 20:46:00,10.8,4.2,29.32,ENE,76,4.0,5.0,74,0.00,,---,0.00,VWS V14.01,2013-02-28 05:46:00,
2013-02-27 20:47:00,10.8,4.2,29.32,ENE,73,4.0,6.0,74,0.00,,---,0.00,VWS V14.01,2013-02-28 05:47:00,
2013-02-27 20:50:00,10.8,4.2,29.32,ENE,76,4.0,5.0,74,0.00,,---,0.00,VWS V14.01,2013-02-28 05:50:00,
2013-02-27 20:51:00,10.9,4.6,29.32,NNE,32,4.0,6.0,75,0.00,,---,0.00,VWS V14.01,2013-02-28 05:51:00,
2013-02-27 20:52:00,10.9,4.2,29.32,NNE,18,5.0,8.0,74,0.00,,---,0.00,VWS V14.01,2013-02-28 05:52:00,
2013-02-27 20:55:00,10.9,4.2,29.32,NNE,30,5.0,7.0,74,0.00,,---,0.00,VWS V14.01,2013-02-28 05:55:00,
2013-02-27 20:56:00,10.8,4.2,29.32,NNE,18,4.0,8.0,74,0.00,,---,0.00,VWS V14.01,2013-02-28 05:56:00,
2013-02-27 20:57:00,10.8,4.2,29.32,NNE,18,5.0,8.0,74,0.00,,---,0.00,VWS V14.01,2013-02-28 05:57:00,
2013-02-27 20:58:00,10.8,4.2,29.32,NNE,18,3.0,5.0,74,0.00,,---,0.00,VWS V14.01,2013-02-28 05:58:00,
2013-02-27 21:00:00,10.8,4.2,29.32,NNE,18,5.0,8.0,74,0.00,,---,0.00,VWS V14.01,2013-02-28 06:00:00,
2013-02-27 21:01:00,10.7,4.1,29.32,NNE,18,2.0,5.0,74,0.00,,---,0.00,VWS V14.01,2013-02-28 06:01:00,
2013-02-27 21:02:00,10.7,4.1,29.32,NNE,18,3.0,4.0,74,0.00,,---,0.00,VWS V14.01,2013-02-28 06:02:00,
2013-02-27 21:03:00,10.6,4.0,29.32,NNE,18,5.0,6.0,74,0.00,,---,0.00,VWS V14.01,2013-02-28 06:03:00,
2013-02-27 21:05:00,10.7,4.1,29.32,NNE,18,4.0,5.0,74,0.00,,---,0.00,VWS V14.01,2013-02-28 06:05:00,
2013-02-27 21:06:00,10.6,4.0,29.32,NNE,17,3.0,6.0,74,0.00,,---,0.00,VWS V14.01,2013-02-28 06:06:00,
2013-02-27 21:07:00,10.6,4.0,29.32,NNE,17,2.0,4.0,74,0.00,,---,0.00,VWS V14.01,2013-02-28 06:07:00,
2013-02-27 21:08:00,10.6,4.0,29.32,NNE,17,2.0,4.0,74,0.00,,---,0.00,VWS V14.01,2013-02-28 06:08:00,
2013-02-27 21:10:00,10.6,4.0,29.32,NNE,17,4.0,6.0,74,0.00,,---,0.00,VWS V14.01,2013-02-28 06:10:00,
2013-02-27 21:12:00,10.5,3.9,29.33,NNE,17,2.0,4.0,74,0.00,,---,0.00,VWS V14.01,2013-02-28 06:12:00,
2013-02-27 21:13:00,10.5,3.9,29.33,NNE,17,4.0,5.0,74,0.00,,---,0.00,VWS V14.01,2013-02-28 06:13:00,
2013-02-27 21:14:00,10.5,3.9,29.33,NNE,17,4.0,5.0,74,0.00,,---,0.00,VWS V14.01,2013-02-28 06:14:00,
2013-02-27 21:15:00,10.5,3.9,29.33,NNE,17,2.0,4.0,74,0.00,,---,0.00,VWS V14.01,2013-02-28 06:15:00,
2013-02-27 21:17:00,10.4,3.8,29.33,NNE,17,3.0,3.0,74,0.00,,---,0.00,VWS V14.01,2013-02-28 06:17:00,
2013-02-27 21:18:00,10.3,3.7,29.33,NNE,17,2.0,3.0,74,0.00,,---,0.00,VWS V14.01,2013-02-28 06:18:00,
2013-02-27 21:19:00,10.3,3.7,29.33,NNE,17,2.0,4.0,74,0.00,,---,0.00,VWS V14.01,2013-02-28 06:19:00,
2013-02-27 21:20:00,10.4,3.8,29.33,NNE,17,3.0,5.0,74,0.00,,---,0.00,VWS V14.01,2013-02-28 06:20:00,
2013-02-27 21:22:00,10.1,3.5,29.32,NNE,17,2.0,4.0,74,0.00,,---,0.00,VWS V14.01,2013-02-28 06:22:00,
2013-02-27 21:23:00,10.1,3.5,29.32,NNE,17,3.0,4.0,74,0.00,,---,0.00,VWS V14.01,2013-02-28 06:23:00,
2013-02-27 21:24:00,10.0,3.4,29.33,NNE,17,1.0,4.0,74,0.00,,---,0.00,VWS V14.01,2013-02-28 06:24:00,
2013-02-27 21:25:00,10.1,3.5,29.32,NNE,17,4.0,4.0,74,0.00,,---,0.00,VWS V14.01,2013-02-28 06:25:00,
2013-02-27 21:27:00,9.9,3.3,29.33,NNE,17,2.0,3.0,74,0.00,,---,0.00,VWS V14.01,2013-02-28 06:27:00,
2013-02-27 21:28:00,9.9,3.3,29.33,NNE,17,2.0,3.0,74,0.00,,---,0.00,VWS V14.01,2013-02-28 06:28:00,
2013-02-27 21:30:00,9.9,3.3,29.33,NNE,17,1.0,3.0,74,0.00,,---,0.00,VWS V14.01,2013-02-28 06:30:00,
2013-02-27 21:33:00,9.7,3.1,29.33,NNE,17,3.0,3.0,74,0.00,,---,0.00,VWS V14.01,2013-02-28 06:33:00,
2013-02-27 21:35:00,9.5,2.9,29.33,NNE,17,1.0,5.0,74,0.00,,---,0.00,VWS V14.01,2013-02-28 06:35:00,
2013-02-27 21:38:00,9.4,2.8,29.33,NNE,17,0.0,2.0,74,0.00,,---,0.00,VWS V14.01,2013-02-28 06:38:00,
2013-02-27 21:39:00,9.3,2.7,29.33,NNE,17,0.0,2.0,74,0.00,,---,0.00,VWS V14.01,2013-02-28 06:39:00,
2013-02-27 21:40:00,9.2,2.6,29.33,NNE,17,0.0,2.0,74,0.00,,---,0.00,VWS V14.01,2013-02-28 06:40:00,
2013-02-27 21:43:00,9.0,2.4,29.33,NNE,17,0.0,0.0,74,0.00,,---,0.00,VWS V14.01,2013-02-28 06:43:00,
2013-02-27 21:44:00,9.0,2.4,29.33,NNE,17,0.0,0.0,74,0.00,,---,0.00,VWS V14.01,2013-02-28 06:44:00,
2013-02-27 21:45:00,8.8,2.2,29.33,NNE,17,0.0,0.0,74,0.00,,---,0.00,VWS V14.01,2013-02-28 06:45:00,
2013-02-27 21:48:00,8.3,1.7,29.33,NNE,17,0.0,0.0,74,0.00,,---,0.00,VWS V14.01,2013-02-28 06:48:00,
2013-02-27 21:49:00,8.3,1.7,29.33,NNE,17,0.0,0.0,74,0.00,,---,0.00,VWS V14.01,2013-02-28 06:49:00,
2013-02-27 21:50:00,8.1,1.5,29.33,NNE,17,0.0,0.0,74,0.00,,---,0.00,VWS V14.01,2013-02-28 06:50:00,
2013-02-27 21:54:00,7.7,1.4,29.33,NNE,17,2.0,3.0,75,0.00,,---,0.00,VWS V14.01,2013-02-28 06:54:00,
2013-02-27 21:55:00,7.7,1.7,29.33,NNE,17,4.0,4.0,76,0.00,,---,0.00,VWS V14.01,2013-02-28 06:55:00,
2013-02-27 21:59:00,8.0,2.3,29.33,NNE,17,4.0,7.0,77,0.00,,---,0.00,VWS V14.01,2013-02-28 06:59:00,
2013-02-27 22:00:00,8.0,2.3,29.33,NNE,17,5.0,7.0,77,0.00,,---,0.00,VWS V14.01,2013-02-28 07:00:00,
2013-02-27 22:04:00,8.3,2.3,29.33,NNE,16,4.0,6.0,76,0.00,,---,0.00,VWS V14.01,2013-02-28 07:04:00,
2013-02-27 22:05:00,8.3,2.3,29.33,NNE,16,4.0,6.0,76,0.00,,---,0.00,VWS V14.01,2013-02-28 07:05:00,
2013-02-27 22:09:00,8.4,2.4,29.33,NNE,16,2.0,6.0,76,0.00,,---,0.00,VWS V14.01,2013-02-28 07:09:00,
2013-02-27 22:10:00,8.4,2.1,29.33,NNE,16,4.0,6.0,75,0.00,,---,0.00,VWS V14.01,2013-02-28 07:10:00,
2013-02-27 22:14:00,8.2,1.9,29.33,NNE,16,2.0,4.0,75,0.00,,---,0.00,VWS V14.01,2013-02-28 07:14:00,
2013-02-27 22:15:00,8.2,1.9,29.33,NNE,16,2.0,4.0,75,0.00,,---,0.00,VWS V14.01,2013-02-28 07:15:00,
2013-02-27 22:19:00,7.9,1.6,29.33,NNE,16,0.0,2.0,75,0.00,,---,0.00,VWS V14.01,2013-02-28 07:19:00,
2013-02-27 22:20:00,7.9,1.6,29.33,NNE,16,0.0,2.0,75,0.00,,---,0.00,VWS V14.01,2013-02-28 07:20:00,
2013-02-27 22:25:00,7.2,0.7,29.34,NNE,16,0.0,0.0,74,0.00,,---,0.00,VWS V14.01,2013-02-28 07:25:00,
2013-02-27 22:26:00,6.9,0.4,29.34,NNE,16,0.0,0.0,74,0.00,,---,0.00,VWS V14.01,2013-02-28 07:26:00,
2013-02-27 22:30:00,6.3,-0.2,29.34,NNE,16,0.0,0.0,74,0.00,,---,0.00,VWS V14.01,2013-02-28 07:30:00,
2013-02-27 22:31:00,6.3,-0.2,29.34,NNE,16,0.0,0.0,74,0.00,,---,0.00,VWS V14.01,2013-02-28 07:31:00,
2013-02-27 22:35:00,5.7,-0.5,29.34,NNE,16,0.0,1.0,75,0.00,,---,0.00,VWS V14.01,2013-02-28 07:35:00,
2013-02-27 22:36:00,5.7,-0.5,29.34,NNE,16,0.0,1.0,75,0.00,,---,0.00,VWS V14.01,2013-02-28 07:36:00,
2013-02-27 22:40:00,5.1,-0.8,29.34,NNE,16,0.0,1.0,76,0.00,,---,0.00,VWS V14.01,2013-02-28 07:40:00,
2013-02-27 22:41:00,5.1,-0.8,29.34,NNE,16,0.0,1.0,76,0.00,,---,0.00,VWS V14.01,2013-02-28 07:41:00,
2013-02-27 22:45:00,4.6,-1.0,29.34,NNE,16,2.0,3.0,77,0.00,,---,0.00,VWS V14.01,2013-02-28 07:45:00,
2013-02-27 22:46:00,4.6,-1.0,29.34,NNE,16,0.0,3.0,77,0.00,,---,0.00,VWS V14.01,2013-02-28 07:46:00,
2013-02-27 22:50:00,4.5,-0.8,29.34,NNE,16,2.0,4.0,78,0.00,,---,0.00,VWS V14.01,2013-02-28 07:50:00,
2013-02-27 22:51:00,4.6,-0.5,29.34,NNE,16,1.0,3.0,79,0.00,,---,0.00,VWS V14.01,2013-02-28 07:51:00,
2013-02-27 22:55:00,4.6,-0.5,29.34,NNE,16,2.0,3.0,79,0.00,,---,0.00,VWS V14.01,2013-02-28 07:55:00,
2013-02-27 22:56:00,4.5,-0.6,29.34,NNE,16,0.0,2.0,79,0.00,,---,0.00,VWS V14.01,2013-02-28 07:56:00,
2013-02-27 23:00:00,4.4,-0.7,29.35,NNE,16,0.0,2.0,79,0.00,,---,0.00,VWS V14.01,2013-02-28 08:00:00,
2013-02-27 23:01:00,3.8,-1.5,29.34,NNE,16,0.0,2.0,78,0.00,,---,0.00,VWS V14.01,2013-02-28 08:01:00,
2013-02-27 23:02:00,3.7,-1.6,29.35,NNE,16,0.0,0.0,78,0.00,,---,0.00,VWS V14.01,2013-02-28 08:02:00,
2013-02-27 23:05:00,3.8,-1.5,29.35,NNE,16,0.0,2.0,78,0.00,,---,0.00,VWS V14.01,2013-02-28 08:05:00,
2013-02-27 23:06:00,3.1,-2.2,29.34,NNE,16,0.0,0.0,78,0.00,,---,0.00,VWS V14.01,2013-02-28 08:06:00,
2013-02-27 23:07:00,3.1,-2.2,29.35,NNE,16,0.0,0.0,78,0.00,,---,0.00,VWS V14.01,2013-02-28 08:07:00,
2013-02-27 23:10:00,3.1,-2.2,29.35,NNE,16,0.0,0.0,78,0.00,,---,0.00,VWS V14.01,2013-02-28 08:10:00,
2013-02-27 23:12:00,2.6,-2.7,29.34,NNE,16,0.0,0.0,78,0.00,,---,0.00,VWS V14.01,2013-02-28 08:12:00,
2013-02-27 23:15:00,2.6,-2.7,29.34,NNE,16,0.0,0.0,78,0.00,,---,0.00,VWS V14.01,2013-02-28 08:15:00,
2013-02-27 23:17:00,2.0,-3.3,29.34,NNE,16,0.0,0.0,78,0.00,,---,0.00,VWS V14.01,2013-02-28 08:17:00,
2013-02-27 23:20:00,2.0,-3.3,29.34,NNE,16,0.0,0.0,78,0.00,,---,0.00,VWS V14.01,2013-02-28 08:20:00,
2013-02-27 23:22:00,1.4,-3.6,29.35,NNE,16,0.0,0.0,79,0.00,,---,0.00,VWS V14.01,2013-02-28 08:22:00,
2013-02-27 23:25:00,1.4,-3.6,29.35,NNE,16,0.0,0.0,79,0.00,,---,0.00,VWS V14.01,2013-02-28 08:25:00,
2013-02-27 23:27:00,0.8,-4.2,29.34,NNE,16,0.0,0.0,79,0.00,,---,0.00,VWS V14.01,2013-02-28 08:27:00,
2013-02-27 23:28:00,0.7,-4.3,29.34,NNE,16,0.0,0.0,79,0.00,,---,0.00,VWS V14.01,2013-02-28 08:28:00,
2013-02-27 23:29:00,0.6,-4.1,29.34,NNE,16,0.0,2.0,80,0.00,,---,0.00,VWS V14.01,2013-02-28 08:29:00,
2013-02-27 23:30:00,0.8,-4.2,29.34,NNE,16,0.0,0.0,79,0.00,,---,0.00,VWS V14.01,2013-02-28 08:30:00,
2013-02-27 23:32:00,0.9,-3.0,29.35,NNE,16,5.0,5.0,83,0.00,,---,0.00,VWS V14.01,2013-02-28 08:32:00,
2013-02-27 23:33:00,1.2,-2.8,29.34,NNE,15,5.0,6.0,83,0.00,,---,0.00,VWS V14.01,2013-02-28 08:33:00,
2013-02-27 23:34:00,2.2,-1.3,29.34,North,11,4.0,7.0,85,0.00,,---,0.00,VWS V14.01,2013-02-28 08:34:00,
2013-02-27 23:35:00,0.8,-1.0,29.35,NNE,16,5.0,5.0,92,0.00,,---,0.00,VWS V14.01,2013-02-28 08:35:00,
2013-02-27 23:37:00,3.5,0.0,29.34,North,5,5.0,7.0,85,0.00,,---,0.00,VWS V14.01,2013-02-28 08:37:00,
2013-02-27 23:38:00,3.8,0.3,29.34,North,360,6.0,7.0,85,0.00,,---,0.00,VWS V14.01,2013-02-28 08:38:00,
2013-02-27 23:39:00,4.5,0.7,29.35,North,355,6.0,8.0,84,0.00,,---,0.00,VWS V14.01,2013-02-28 08:39:00,
2013-02-27 23:40:00,3.3,0.1,29.34,North,5,5.0,7.0,86,0.00,,---,0.00,VWS V14.01,2013-02-28 08:40:00,
2013-02-27 23:42:00,5.0,0.5,29.35,North,355,6.0,8.0,81,0.00,,---,0.00,VWS V14.01,2013-02-28 08:42:00,
2013-02-27 23:43:00,5.1,0.6,29.35,North,355,8.0,10.0,81,0.00,,---,0.00,VWS V14.01,2013-02-28 08:43:00,
2013-02-27 23:45:00,5.3,0.5,29.35,North,355,6.0,10.0,80,0.00,,---,0.00,VWS V14.01,2013-02-28 08:45:00,
2013-02-27 23:48:00,5.4,0.3,29.34,North,351,6.0,7.0,79,0.00,,---,0.00,VWS V14.01,2013-02-28 08:48:00,
2013-02-27 23:50:00,5.3,-0.1,29.35,NNW,348,4.0,8.0,78,0.00,,---,0.00,VWS V14.01,2013-02-28 08:50:00,
2013-02-27 23:53:00,5.4,0.0,29.35,NNW,348,4.0,7.0,78,0.00,,---,0.00,VWS V14.01,2013-02-28 08:53:00,
2013-02-27 23:54:00,5.3,-0.1,29.35,NNW,348,4.0,7.0,78,0.00,,---,0.00,VWS V14.01,2013-02-28 08:54:00,
2013-02-27 23:55:00,5.3,-0.1,29.35,NNW,348,4.0,7.0,78,0.00,,---,0.00,VWS V14.01,2013-02-28 08:55:00,
2013-02-27 23:58:00,5.3,-0.1,29.35,NNW,348,5.0,5.0,78,0.00,,---,0.00,VWS V14.01,2013-02-28 08:58:00,
2013-02-27 23:59:00,5.2,-0.2,29.35,NNW,348,5.0,6.0,78,0.00,,---,0.00,VWS V14.01,2013-02-28 08:59:00,